Observation data for Earth on 01/20/2019      Previous  Date  Next       Current Mesonet Observations  Soil Data  Daily Summary Page  Observations in Plain Language
KEA1 200600Z 16008KT M00/M04 A3027 RMK A01 T10031040  RH  076%=      5-min Rain = 0
KEA1 200601Z 16008KT M00/M04 A3027 RMK A01 T10021040  RH  076%=      5-min Rain = 0
KEA1 200602Z 17009KT M00/M04 A3027 RMK A01 T10021040  RH  076%=      5-min Rain = 0
KEA1 200603Z 16009KT M00/M04 A3027 RMK A01 T10021040  RH  076%=      5-min Rain = 0
KEA1 200604Z 16009KT M00/M04 A3027 RMK A01 T10021040  RH  076%=      5-min Rain = 0
KEA1 200605Z 16009KT M00/M04 A3027 RMK A01 T10011039  RH  075%=      5-min Rain = 0
KEA1 200606Z 16010KT 00/04 A3027 RMK A01 T00-00-39  RH  075%=      5-min Rain = 0
KEA1 200607Z 17009KT 00/04 A3027 RMK A01 T00-00-40  RH  075%=      5-min Rain = 0
KEA1 200608Z 17009KT 00/M04 A3027 RMK A01 T00011040  RH  074%=      5-min Rain = 0
KEA1 200609Z 17009KT 00/M04 A3026 RMK A01 T00021039  RH  074%=      5-min Rain = 0
KEA1 200610Z 17009KT 00/M04 A3026 RMK A01 T00031039  RH  074%=      5-min Rain = 0
KEA1 200611Z 17009KT 00/M04 A3027 RMK A01 T00031039  RH  073%=      5-min Rain = 0
KEA1 200612Z 17009KT 00/M04 A3027 RMK A01 T00041039  RH  073%=      5-min Rain = 0
KEA1 200613Z 17009KT 00/M04 A3027 RMK A01 T00031039  RH  073%=      5-min Rain = 0
KEA1 200614Z 17010KT 00/M04 A3027 RMK A01 T00031039  RH  073%=      5-min Rain = 0
KEA1 200615Z 17009KT 00/M04 A3027 RMK A01 T00041039  RH  073%=      5-min Rain = 0
KEA1 200616Z 17009KT 00/M04 A3027 RMK A01 T00041039  RH  073%=      5-min Rain = 0
KEA1 200617Z 17009KT 00/M04 A3027 RMK A01 T00041038  RH  073%=      5-min Rain = 0
KEA1 200618Z 17009KT 00/M04 A3027 RMK A01 T00041039  RH  073%=      5-min Rain = 0
KEA1 200619Z 17009KT 00/M04 A3026 RMK A01 T00041038  RH  073%=      5-min Rain = 0
KEA1 200620Z 17010KT 01/M04 A3026 RMK A01 T00051038  RH  073%=      5-min Rain = 0
KEA1 200621Z 17009KT 01/M04 A3026 RMK A01 T00051038  RH  073%=      5-min Rain = 0
KEA1 200622Z 17009KT 01/M04 A3026 RMK A01 T00051038  RH  073%=      5-min Rain = 0
KEA1 200623Z 17008KT 01/M04 A3027 RMK A01 T00051038  RH  073%=      5-min Rain = 0
KEA1 200624Z 18009KT 01/M04 A3027 RMK A01 T00051038  RH  073%=      5-min Rain = 0
KEA1 200625Z 17009KT 01/M04 A3027 RMK A01 T00051039  RH  073%=      5-min Rain = 0
KEA1 200626Z 17009KT 01/M04 A3027 RMK A01 T00051039  RH  073%=      5-min Rain = 0
KEA1 200627Z 18008KT 00/M04 A3027 RMK A01 T00041039  RH  073%=      5-min Rain = 0
KEA1 200628Z 18008KT 00/M04 A3027 RMK A01 T00041039  RH  073%=      5-min Rain = 0
KEA1 200629Z 17009KT 00/M04 A3026 RMK A01 T00041039  RH  073%=      5-min Rain = 0
KEA1 200630Z 18009KT 00/M04 A3026 RMK A01 T00041039  RH  073%=      5-min Rain = 0
KEA1 200631Z 17009KT 00/M04 A3026 RMK A01 T00041039  RH  073%=      5-min Rain = 0
KEA1 200632Z 17009KT 00/M04 A3026 RMK A01 T00041039  RH  073%=      5-min Rain = 0
KEA1 200633Z 17010KT 00/M04 A3026 RMK A01 T00041038  RH  073%=      5-min Rain = 0
KEA1 200634Z 17010KT 00/M04 A3026 RMK A01 T00041038  RH  073%=      5-min Rain = 0
KEA1 200635Z 17010KT 00/M04 A3026 RMK A01 T00041039  RH  073%=      5-min Rain = 0
KEA1 200636Z 17010KT 00/M04 A3026 RMK A01 T00041039  RH  073%=      5-min Rain = 0
KEA1 200637Z 18011KT 00/M04 A3026 RMK A01 T00041039  RH  073%=      5-min Rain = 0
KEA1 200638Z 18012KT 01/M04 A3026 RMK A01 T00051038  RH  073%=      5-min Rain = 0
KEA1 200639Z 17012KT 01/M04 A3026 RMK A01 T00061039  RH  072%=      5-min Rain = 0
KEA1 200640Z 18011KT 01/M04 A3026 RMK A01 T00061039  RH  072%=      5-min Rain = 0
KEA1 200641Z 18011KT 01/M04 A3026 RMK A01 T00061039  RH  072%=      5-min Rain = 0
KEA1 200642Z 18010KT 01/M04 A3026 RMK A01 T00051040  RH  072%=      5-min Rain = 0
KEA1 200643Z 18011KT 01/M04 A3026 RMK A01 T00051040  RH  072%=      5-min Rain = 0
KEA1 200644Z 18011KT 01/M04 A3026 RMK A01 T00061039  RH  072%=      5-min Rain = 0
KEA1 200645Z 17011KT 01/M04 A3026 RMK A01 T00061040  RH  072%=      5-min Rain = 0
KEA1 200646Z 18010KT 01/M04 A3026 RMK A01 T00051040  RH  071%=      5-min Rain = 0
KEA1 200647Z 18011KT 01/M04 A3026 RMK A01 T00061040  RH  071%=      5-min Rain = 0
KEA1 200648Z 18010KT 01/M04 A3026 RMK A01 T00051040  RH  072%=      5-min Rain = 0
KEA1 200649Z 18011KT 00/M04 A3026 RMK A01 T00041041  RH  072%=      5-min Rain = 0
KEA1 200650Z 17010KT 01/M04 A3026 RMK A01 T00051041  RH  072%=      5-min Rain = 0
KEA1 200651Z 17010KT 01/M04 A3026 RMK A01 T00051041  RH  072%=      5-min Rain = 0
KEA1 200652Z 18009KT 00/M04 A3026 RMK A01 T00041041  RH  072%=      5-min Rain = 0
KEA1 200653Z 18010KT 00/M04 A3026 RMK A01 T00041042  RH  072%=      5-min Rain = 0
KEA1 200654Z 18010KT 00/M04 A3026 RMK A01 T00041041  RH  072%=      5-min Rain = 0
KEA1 200655Z 18010KT 00/M04 A3026 RMK A01 T00041041  RH  072%=      5-min Rain = 0
KEA1 200656Z 18010KT 00/M04 A3026 RMK A01 T00041042  RH  072%=      5-min Rain = 0
KEA1 200657Z 18010KT 00/M04 A3026 RMK A01 T00031042  RH  072%=      5-min Rain = 0
KEA1 200658Z 18010KT 00/M04 A3026 RMK A01 T00031042  RH  072%=      5-min Rain = 0
KEA1 200659Z 18011KT 00/M04 A3026 RMK A01 T00031042  RH  072%=      5-min Rain = 0
KEA1 200700Z 18010KT 00/M04 A3026 RMK A01 T00031042  RH  072%=      5-min Rain = 0
KEA1 200701Z 18011KT 00/M04 A3026 RMK A01 T00031042  RH  072%=      5-min Rain = 0
KEA1 200702Z 18010KT 00/M04 A3026 RMK A01 T00031042  RH  072%=      5-min Rain = 0
KEA1 200703Z 18010KT 00/M04 A3026 RMK A01 T00021042  RH  072%=      5-min Rain = 0
KEA1 200704Z 18011KT 00/M04 A3026 RMK A01 T00021043  RH  072%=      5-min Rain = 0
KEA1 200705Z 18011KT 00/M04 A3026 RMK A01 T00021043  RH  072%=      5-min Rain = 0
KEA1 200706Z 18010KT 00/M04 A3026 RMK A01 T00021042  RH  072%=      5-min Rain = 0
KEA1 200707Z 18011KT 00/M04 A3026 RMK A01 T00011043  RH  072%=      5-min Rain = 0
KEA1 200708Z 18011KT 00/M04 A3026 RMK A01 T00011043  RH  072%=      5-min Rain = 0
KEA1 200709Z 18012KT 00/M04 A3026 RMK A01 T00011043  RH  072%=      5-min Rain = 0
KEA1 200710Z 18012KT 00/M04 A3026 RMK A01 T00011043  RH  072%=      5-min Rain = 0
KEA1 200711Z 18011KT 00/M04 A3026 RMK A01 T00021043  RH  072%=      5-min Rain = 0
KEA1 200712Z 18012KT 00/M04 A3026 RMK A01 T00011043  RH  072%=      5-min Rain = 0
KEA1 200713Z 18012KT 00/M04 A3026 RMK A01 T00011043  RH  072%=      5-min Rain = 0
KEA1 200714Z 18012KT 00/M04 A3026 RMK A01 T00021043  RH  072%=      5-min Rain = 0
KEA1 200715Z 18012KT 00/M04 A3026 RMK A01 T00021043  RH  072%=      5-min Rain = 0
KEA1 200716Z 18012KT 00/M04 A3026 RMK A01 T00021043  RH  072%=      5-min Rain = 0
KEA1 200717Z 18011KT 00/M04 A3026 RMK A01 T00021043  RH  071%=      5-min Rain = 0
KEA1 200718Z 18011KT 00/M04 A3026 RMK A01 T00021043  RH  071%=      5-min Rain = 0
KEA1 200719Z 18011KT 00/M04 A3026 RMK A01 T00021043  RH  072%=      5-min Rain = 0
KEA1 200720Z 18010KT 00/M04 A3026 RMK A01 T00021044  RH  072%=      5-min Rain = 0
KEA1 200721Z 18010KT 00/M04 A3026 RMK A01 T00021044  RH  072%=      5-min Rain = 0
KEA1 200722Z 18011KT 00/M04 A3026 RMK A01 T00021043  RH  072%=      5-min Rain = 0
KEA1 200723Z 18011KT 00/M04 A3026 RMK A01 T00021044  RH  071%=      5-min Rain = 0
KEA1 200724Z 18010KT 00/M04 A3026 RMK A01 T00021044  RH  071%=      5-min Rain = 0
KEA1 200725Z 18010KT 00/M04 A3026 RMK A01 T00011044  RH  071%=      5-min Rain = 0
KEA1 200726Z 18011KT 00/M04 A3026 RMK A01 T00011044  RH  072%=      5-min Rain = 0
KEA1 200727Z 18012KT 00/M04 A3026 RMK A01 T00011044  RH  072%=      5-min Rain = 0
KEA1 200728Z 18011KT 00/M04 A3026 RMK A01 T00011044  RH  072%=      5-min Rain = 0
KEA1 200729Z 17011KT 00/M04 A3025 RMK A01 T00011044  RH  072%=      5-min Rain = 0
KEA1 200730Z 18011KT 00/M04 A3025 RMK A01 T00011044  RH  072%=      5-min Rain = 0
KEA1 200731Z 18011KT 00/M04 A3025 RMK A01 T00011044  RH  071%=      5-min Rain = 0
KEA1 200732Z 18011KT 00/M04 A3025 RMK A01 T00011044  RH  072%=      5-min Rain = 0
KEA1 200733Z 18011KT 00/M04 A3025 RMK A01 T00011044  RH  072%=      5-min Rain = 0
KEA1 200734Z 18011KT 00/M04 A3025 RMK A01 T00011044  RH  072%=      5-min Rain = 0
KEA1 200735Z 18011KT 00/05 A3025 RMK A01 T00000-45  RH  072%=      5-min Rain = 0
KEA1 200736Z 18011KT 00/05 A3025 RMK A01 T00000-45  RH  072%=      5-min Rain = 0
KEA1 200737Z 18011KT 00/M04 A3025 RMK A01 T00011044  RH  072%=      5-min Rain = 0
KEA1 200738Z 18012KT 00/M04 A3025 RMK A01 T00011044  RH  071%=      5-min Rain = 0
KEA1 200739Z 18012KT 00/M05 A3025 RMK A01 T00011045  RH  071%=      5-min Rain = 0
KEA1 200740Z 18012KT 00/M05 A3025 RMK A01 T00011045  RH  071%=      5-min Rain = 0
KEA1 200741Z 18012KT 00/M05 A3025 RMK A01 T00011045  RH  071%=      5-min Rain = 0
KEA1 200742Z 18012KT 00/M05 A3025 RMK A01 T00021045  RH  071%=      5-min Rain = 0
KEA1 200743Z 18011KT 00/M05 A3025 RMK A01 T00021045  RH  071%=      5-min Rain = 0
KEA1 200744Z 17010KT 00/M05 A3025 RMK A01 T00021045  RH  071%=      5-min Rain = 0
KEA1 200745Z 17011KT 00/M05 A3025 RMK A01 T00011045  RH  071%=      5-min Rain = 0
KEA1 200746Z 17010KT 00/M05 A3025 RMK A01 T00011045  RH  071%=      5-min Rain = 0
KEA1 200747Z 17010KT 00/M05 A3025 RMK A01 T00021045  RH  071%=      5-min Rain = 0
KEA1 200748Z 17010KT 00/M05 A3025 RMK A01 T00021045  RH  071%=      5-min Rain = 0
KEA1 200749Z 18010KT 00/M05 A3025 RMK A01 T00011045  RH  071%=      5-min Rain = 0
KEA1 200750Z 18010KT 00/M05 A3025 RMK A01 T00011045  RH  071%=      5-min Rain = 0
KEA1 200751Z 18011KT 00/M05 A3025 RMK A01 T00011045  RH  071%=      5-min Rain = 0
KEA1 200752Z 17010KT 00/M05 A3025 RMK A01 T00011045  RH  071%=      5-min Rain = 0
KEA1 200753Z 17011KT 00/M05 A3025 RMK A01 T00011046  RH  071%=      5-min Rain = 0
KEA1 200754Z 18011KT 00/M05 A3025 RMK A01 T00011045  RH  071%=      5-min Rain = 0
KEA1 200755Z 18011KT 00/05 A3025 RMK A01 T00-00-46  RH  071%=      5-min Rain = 0
KEA1 200756Z 18011KT 00/05 A3025 RMK A01 T00-00-46  RH  071%=      5-min Rain = 0
KEA1 200757Z 18011KT 00/05 A3025 RMK A01 T00-00-45  RH  072%=      5-min Rain = 0
KEA1 200758Z 18010KT 00/05 A3025 RMK A01 T00-00-45  RH  072%=      5-min Rain = 0
KEA1 200759Z 18011KT 00/05 A3024 RMK A01 T00-00-45  RH  072%=      5-min Rain = 0
KEA1 200800Z 18011KT 00/05 A3024 RMK A01 T00000-45  RH  071%=      5-min Rain = 0
KEA1 200801Z 17012KT 00/M05 A3025 RMK A01 T00011045  RH  071%=      5-min Rain = 0
KEA1 200802Z 18012KT 00/M05 A3025 RMK A01 T00011045  RH  071%=      5-min Rain = 0
KEA1 200803Z 17011KT 00/M05 A3025 RMK A01 T00021045  RH  071%=      5-min Rain = 0
KEA1 200804Z 17012KT 00/M05 A3025 RMK A01 T00021045  RH  071%=      5-min Rain = 0
KEA1 200805Z 17011KT 00/M05 A3025 RMK A01 T00021046  RH  071%=      5-min Rain = 0
KEA1 200806Z 17011KT 00/M05 A3025 RMK A01 T00021045  RH  071%=      5-min Rain = 0
KEA1 200807Z 17010KT 00/M05 A3025 RMK A01 T00021045  RH  070%=      5-min Rain = 0
KEA1 200808Z 17010KT 00/M05 A3025 RMK A01 T00021045  RH  070%=      5-min Rain = 0
KEA1 200809Z 17010KT 00/M05 A3025 RMK A01 T00021046  RH  070%=      5-min Rain = 0
KEA1 200810Z 18011KT 00/M05 A3025 RMK A01 T00021046  RH  070%=      5-min Rain = 0
KEA1 200811Z 17010KT 00/M05 A3025 RMK A01 T00021045  RH  070%=      5-min Rain = 0
KEA1 200812Z 17010KT 00/M05 A3025 RMK A01 T00021046  RH  070%=      5-min Rain = 0
KEA1 200813Z 17010KT 00/M05 A3025 RMK A01 T00021046  RH  070%=      5-min Rain = 0
KEA1 200814Z 18011KT 00/M05 A3025 RMK A01 T00021046  RH  070%=      5-min Rain = 0
KEA1 200815Z 17010KT 00/M05 A3025 RMK A01 T00011046  RH  070%=      5-min Rain = 0
KEA1 200816Z 17010KT 00/M05 A3025 RMK A01 T00011046  RH  070%=      5-min Rain = 0
KEA1 200817Z 17010KT 00/M05 A3025 RMK A01 T00011046  RH  071%=      5-min Rain = 0
KEA1 200818Z 17010KT 00/M05 A3025 RMK A01 T00011046  RH  071%=      5-min Rain = 0
KEA1 200819Z 17010KT 00/M05 A3025 RMK A01 T00011046  RH  071%=      5-min Rain = 0
KEA1 200820Z 17010KT 00/M05 A3025 RMK A01 T00011046  RH  071%=      5-min Rain = 0
KEA1 200821Z 17010KT 00/05 A3025 RMK A01 T00000-46  RH  071%=      5-min Rain = 0
KEA1 200822Z 17010KT 00/05 A3025 RMK A01 T00-00-47  RH  071%=      5-min Rain = 0
KEA1 200823Z 17010KT M00/M05 A3025 RMK A01 T10011047  RH  071%=      5-min Rain = 0
KEA1 200824Z 17010KT 00/05 A3025 RMK A01 T00-00-46  RH  071%=      5-min Rain = 0
KEA1 200825Z 17009KT M00/M05 A3025 RMK A01 T10011047  RH  071%=      5-min Rain = 0
KEA1 200826Z 17010KT M00/M05 A3025 RMK A01 T10011046  RH  071%=      5-min Rain = 0
KEA1 200827Z 17010KT M00/M05 A3026 RMK A01 T10011046  RH  071%=      5-min Rain = 0
KEA1 200828Z 17010KT M00/M05 A3026 RMK A01 T10011047  RH  071%=      5-min Rain = 0
KEA1 200829Z 17009KT M00/M05 A3026 RMK A01 T10011046  RH  071%=      5-min Rain = 0
KEA1 200830Z 17010KT M00/M05 A3026 RMK A01 T10011047  RH  071%=      5-min Rain = 0
KEA1 200831Z 18010KT M00/M05 A3026 RMK A01 T10011046  RH  072%=      5-min Rain = 0
KEA1 200832Z 18010KT M00/M05 A3026 RMK A01 T10011046  RH  072%=      5-min Rain = 0
KEA1 200833Z 18009KT M00/M05 A3026 RMK A01 T10011046  RH  072%=      5-min Rain = 0
KEA1 200834Z 18010KT M00/M05 A3026 RMK A01 T10011046  RH  072%=      5-min Rain = 0
KEA1 200835Z 18010KT M00/M05 A3026 RMK A01 T10021046  RH  072%=      5-min Rain = 0
KEA1 200836Z 18010KT M00/M05 A3025 RMK A01 T10021046  RH  072%=      5-min Rain = 0
KEA1 200837Z 18010KT M00/M05 A3025 RMK A01 T10011046  RH  072%=      5-min Rain = 0
KEA1 200838Z 18010KT M00/M05 A3025 RMK A01 T10011046  RH  072%=      5-min Rain = 0
KEA1 200839Z 18010KT M00/M05 A3025 RMK A01 T10021046  RH  072%=      5-min Rain = 0
KEA1 200840Z 18010KT M00/M05 A3025 RMK A01 T10021046  RH  072%=      5-min Rain = 0
KEA1 200841Z 18010KT M00/M05 A3025 RMK A01 T10021046  RH  072%=      5-min Rain = 0
KEA1 200842Z 18010KT M00/M05 A3025 RMK A01 T10021046  RH  072%=      5-min Rain = 0
KEA1 200843Z 17010KT M00/M05 A3025 RMK A01 T10031046  RH  072%=      5-min Rain = 0
KEA1 200844Z 18010KT M00/M05 A3025 RMK A01 T10031046  RH  072%=      5-min Rain = 0
KEA1 200845Z 17010KT M00/M05 A3025 RMK A01 T10031046  RH  072%=      5-min Rain = 0
KEA1 200846Z 18010KT M00/M05 A3025 RMK A01 T10031047  RH  072%=      5-min Rain = 0
KEA1 200847Z 17010KT M00/M05 A3025 RMK A01 T10031047  RH  072%=      5-min Rain = 0
KEA1 200848Z 17011KT M00/M05 A3025 RMK A01 T10031046  RH  072%=      5-min Rain = 0
KEA1 200849Z 18011KT M00/M05 A3025 RMK A01 T10021046  RH  072%=      5-min Rain = 0
KEA1 200850Z 17010KT M00/M05 A3025 RMK A01 T10021046  RH  072%=      5-min Rain = 0
KEA1 200851Z 17010KT M00/M05 A3025 RMK A01 T10021046  RH  072%=      5-min Rain = 0
KEA1 200852Z 17010KT M00/M05 A3025 RMK A01 T10021046  RH  072%=      5-min Rain = 0
KEA1 200853Z 17010KT M00/M05 A3025 RMK A01 T10021046  RH  072%=      5-min Rain = 0
KEA1 200854Z 17010KT M00/M05 A3025 RMK A01 T10021046  RH  072%=      5-min Rain = 0
KEA1 200855Z 17010KT M00/M05 A3025 RMK A01 T10021046  RH  072%=      5-min Rain = 0
KEA1 200856Z 17010KT M00/M05 A3025 RMK A01 T10021047  RH  072%=      5-min Rain = 0
KEA1 200857Z 16010KT M00/M05 A3025 RMK A01 T10021047  RH  072%=      5-min Rain = 0
KEA1 200858Z 16010KT M00/M05 A3025 RMK A01 T10021046  RH  072%=      5-min Rain = 0
KEA1 200859Z 16009KT M00/M05 A3025 RMK A01 T10021047  RH  072%=      5-min Rain = 0
KEA1 200900Z 17010KT M00/M05 A3025 RMK A01 T10021047  RH  072%=      5-min Rain = 0
KEA1 200901Z 17010KT M00/M05 A3025 RMK A01 T10021047  RH  072%=      5-min Rain = 0
KEA1 200902Z 17010KT M00/M05 A3025 RMK A01 T10021047  RH  072%=      5-min Rain = 0
KEA1 200903Z 17010KT M00/M05 A3025 RMK A01 T10021047  RH  072%=      5-min Rain = 0
KEA1 200904Z 17009KT M00/M05 A3025 RMK A01 T10021047  RH  072%=      5-min Rain = 0
KEA1 200905Z 17009KT M00/M05 A3025 RMK A01 T10031047  RH  072%=      5-min Rain = 0
KEA1 200906Z 17009KT M00/M05 A3025 RMK A01 T10031047  RH  072%=      5-min Rain = 0
KEA1 200907Z 17009KT M00/M05 A3025 RMK A01 T10031047  RH  072%=      5-min Rain = 0
KEA1 200908Z 17009KT M00/M05 A3025 RMK A01 T10041048  RH  072%=      5-min Rain = 0
KEA1 200909Z 17009KT M00/M05 A3025 RMK A01 T10041047  RH  073%=      5-min Rain = 0
KEA1 200910Z 17010KT M00/M05 A3025 RMK A01 T10041047  RH  073%=      5-min Rain = 0
KEA1 200911Z 16009KT M00/M05 A3025 RMK A01 T10041047  RH  073%=      5-min Rain = 0
KEA1 200912Z 17009KT M01/M05 A3025 RMK A01 T10051047  RH  073%=      5-min Rain = 0
KEA1 200913Z 17009KT M01/M05 A3025 RMK A01 T10051047  RH  073%=      5-min Rain = 0
KEA1 200914Z 17010KT M01/M05 A3025 RMK A01 T10051047  RH  073%=      5-min Rain = 0
KEA1 200915Z 17009KT M01/M05 A3025 RMK A01 T10051047  RH  073%=      5-min Rain = 0
KEA1 200916Z 17010KT M01/M05 A3025 RMK A01 T10051047  RH  073%=      5-min Rain = 0
KEA1 200917Z 17009KT M01/M05 A3025 RMK A01 T10051047  RH  073%=      5-min Rain = 0
KEA1 200918Z 17009KT M01/M05 A3025 RMK A01 T10051047  RH  073%=      5-min Rain = 0
KEA1 200919Z 17010KT M01/M05 A3025 RMK A01 T10051047  RH  073%=      5-min Rain = 0
KEA1 200920Z 17009KT M01/M05 A3025 RMK A01 T10051047  RH  073%=      5-min Rain = 0
KEA1 200921Z 17009KT M01/M05 A3025 RMK A01 T10051046  RH  073%=      5-min Rain = 0
KEA1 200922Z 17009KT M01/M05 A3025 RMK A01 T10051047  RH  074%=      5-min Rain = 0
KEA1 200923Z 17009KT M01/M05 A3025 RMK A01 T10051046  RH  074%=      5-min Rain = 0
KEA1 200924Z 17009KT M01/M05 A3025 RMK A01 T10051046  RH  074%=      5-min Rain = 0
KEA1 200925Z 17009KT M01/M05 A3025 RMK A01 T10061047  RH  074%=      5-min Rain = 0
KEA1 200926Z 16009KT M01/M05 A3025 RMK A01 T10061047  RH  074%=      5-min Rain = 0
KEA1 200927Z 16010KT M01/M05 A3025 RMK A01 T10071047  RH  074%=      5-min Rain = 0
KEA1 200928Z 17010KT M01/M05 A3025 RMK A01 T10071047  RH  074%=      5-min Rain = 0
KEA1 200929Z 17009KT M01/M05 A3025 RMK A01 T10071047  RH  074%=      5-min Rain = 0
KEA1 200930Z 17009KT M01/M05 A3025 RMK A01 T10071046  RH  074%=      5-min Rain = 0
KEA1 200931Z 17008KT M01/M05 A3025 RMK A01 T10071047  RH  074%=      5-min Rain = 0
KEA1 200932Z 17008KT M01/M05 A3025 RMK A01 T10071047  RH  075%=      5-min Rain = 0
KEA1 200933Z 17009KT M01/M05 A3025 RMK A01 T10081047  RH  075%=      5-min Rain = 0
KEA1 200934Z 17009KT M01/M05 A3025 RMK A01 T10081047  RH  075%=      5-min Rain = 0
KEA1 200935Z 17009KT M01/M05 A3025 RMK A01 T10091047  RH  075%=      5-min Rain = 0
KEA1 200936Z 17009KT M01/M05 A3024 RMK A01 T10091047  RH  075%=      5-min Rain = 0
KEA1 200937Z 17008KT M01/M05 A3024 RMK A01 T10091047  RH  075%=      5-min Rain = 0
KEA1 200938Z 17009KT M01/M05 A3024 RMK A01 T10101048  RH  076%=      5-min Rain = 0
KEA1 200939Z 16009KT M01/M05 A3024 RMK A01 T10111048  RH  076%=      5-min Rain = 0
KEA1 200940Z 17009KT M01/M05 A3024 RMK A01 T10111048  RH  076%=      5-min Rain = 0
KEA1 200941Z 17009KT M01/M05 A3024 RMK A01 T10121048  RH  076%=      5-min Rain = 0
KEA1 200942Z 17009KT M01/M05 A3024 RMK A01 T10121048  RH  076%=      5-min Rain = 0
KEA1 200943Z 17009KT M01/M05 A3024 RMK A01 T10121048  RH  076%=      5-min Rain = 0
KEA1 200944Z 17009KT M01/M05 A3024 RMK A01 T10121048  RH  076%=      5-min Rain = 0
KEA1 200945Z 17009KT M01/M05 A3024 RMK A01 T10131049  RH  076%=      5-min Rain = 0
KEA1 200946Z 17009KT M01/M05 A3024 RMK A01 T10131049  RH  077%=      5-min Rain = 0
KEA1 200947Z 17009KT M01/M05 A3024 RMK A01 T10141049  RH  077%=      5-min Rain = 0
KEA1 200948Z 17009KT M01/M05 A3024 RMK A01 T10141049  RH  077%=      5-min Rain = 0
KEA1 200949Z 17009KT M01/M05 A3024 RMK A01 T10141049  RH  077%=      5-min Rain = 0
KEA1 200950Z 17009KT M01/M05 A3024 RMK A01 T10141049  RH  077%=      5-min Rain = 0
KEA1 200951Z 17009KT M01/M05 A3024 RMK A01 T10141049  RH  077%=      5-min Rain = 0
KEA1 200952Z 17009KT M02/M05 A3024 RMK A01 T10151049  RH  077%=      5-min Rain = 0
KEA1 200953Z 17009KT M02/M05 A3024 RMK A01 T10151049  RH  077%=      5-min Rain = 0
KEA1 200954Z 17009KT M02/M05 A3024 RMK A01 T10151049  RH  077%=      5-min Rain = 0
KEA1 200955Z 17009KT M02/M05 A3024 RMK A01 T10151049  RH  077%=      5-min Rain = 0
KEA1 200956Z 17009KT M02/M05 A3024 RMK A01 T10151049  RH  077%=      5-min Rain = 0
KEA1 200957Z 17009KT M02/M05 A3024 RMK A01 T10151049  RH  077%=      5-min Rain = 0
KEA1 200958Z 17010KT M02/M05 A3024 RMK A01 T10151050  RH  077%=      5-min Rain = 0
KEA1 200959Z 17009KT M02/M05 A3024 RMK A01 T10151050  RH  077%=      5-min Rain = 0
KEA1 201000Z 17010KT M02/M05 A3024 RMK A01 T10151049  RH  077%=      5-min Rain = 0
KEA1 201001Z 17010KT M01/M05 A3024 RMK A01 T10141049  RH  077%=      5-min Rain = 0
KEA1 201002Z 17009KT M01/M05 A3024 RMK A01 T10141049  RH  077%=      5-min Rain = 0
KEA1 201003Z 17010KT M01/M05 A3024 RMK A01 T10141050  RH  077%=      5-min Rain = 0
KEA1 201004Z 17010KT M01/M05 A3024 RMK A01 T10141050  RH  077%=      5-min Rain = 0
KEA1 201005Z 17010KT M01/M05 A3024 RMK A01 T10141050  RH  076%=      5-min Rain = 0
KEA1 201006Z 16010KT M01/M05 A3024 RMK A01 T10141050  RH  076%=      5-min Rain = 0
KEA1 201007Z 16010KT M01/M05 A3024 RMK A01 T10141049  RH  077%=      5-min Rain = 0
KEA1 201008Z 17010KT M01/M05 A3024 RMK A01 T10141050  RH  077%=      5-min Rain = 0
KEA1 201009Z 17010KT M02/M05 A3024 RMK A01 T10151050  RH  077%=      5-min Rain = 0
KEA1 201010Z 17010KT M02/M05 A3024 RMK A01 T10151050  RH  077%=      5-min Rain = 0
KEA1 201011Z 17010KT M02/M05 A3024 RMK A01 T10151050  RH  077%=      5-min Rain = 0
KEA1 201012Z 17010KT M02/M05 A3024 RMK A01 T10151050  RH  077%=      5-min Rain = 0
KEA1 201013Z 17010KT M02/M05 A3024 RMK A01 T10151050  RH  077%=      5-min Rain = 0
KEA1 201014Z 17010KT M02/M05 A3023 RMK A01 T10151050  RH  077%=      5-min Rain = 0
KEA1 201015Z 17009KT M01/M05 A3023 RMK A01 T10141050  RH  077%=      5-min Rain = 0
KEA1 201016Z 17010KT M02/M05 A3023 RMK A01 T10151050  RH  077%=      5-min Rain = 0
KEA1 201017Z 17010KT M01/M05 A3023 RMK A01 T10141050  RH  077%=      5-min Rain = 0
KEA1 201018Z 17010KT M01/M05 A3023 RMK A01 T10141050  RH  077%=      5-min Rain = 0
KEA1 201019Z 17010KT M01/M05 A3023 RMK A01 T10141050  RH  077%=      5-min Rain = 0
KEA1 201020Z 16010KT M02/M05 A3023 RMK A01 T10151051  RH  077%=      5-min Rain = 0
KEA1 201021Z 16010KT M02/M05 A3023 RMK A01 T10161051  RH  077%=      5-min Rain = 0
KEA1 201022Z 17009KT M02/M05 A3023 RMK A01 T10161051  RH  077%=      5-min Rain = 0
KEA1 201023Z 17010KT M02/M05 A3023 RMK A01 T10151050  RH  077%=      5-min Rain = 0
KEA1 201024Z 17009KT M02/M05 A3023 RMK A01 T10151050  RH  077%=      5-min Rain = 0
KEA1 201025Z 16009KT M02/M05 A3023 RMK A01 T10161051  RH  077%=      5-min Rain = 0
KEA1 201026Z 16009KT M02/M05 A3024 RMK A01 T10171051  RH  077%=      5-min Rain = 0
KEA1 201027Z 17009KT M02/M05 A3023 RMK A01 T10171052  RH  077%=      5-min Rain = 0
KEA1 201028Z 17009KT M02/M05 A3023 RMK A01 T10181052  RH  078%=      5-min Rain = 0
KEA1 201029Z 16009KT M02/M05 A3023 RMK A01 T10181051  RH  078%=      5-min Rain = 0
KEA1 201030Z 17010KT M02/M05 A3023 RMK A01 T10181052  RH  078%=      5-min Rain = 0
KEA1 201031Z 17010KT M02/M05 A3023 RMK A01 T10181052  RH  078%=      5-min Rain = 0
KEA1 201032Z 17011KT M02/M05 A3023 RMK A01 T10181051  RH  078%=      5-min Rain = 0
KEA1 201033Z 17010KT M02/M05 A3023 RMK A01 T10191052  RH  078%=      5-min Rain = 0
KEA1 201034Z 17010KT M02/M05 A3023 RMK A01 T10181051  RH  078%=      5-min Rain = 0
KEA1 201035Z 16009KT M02/M05 A3023 RMK A01 T10181051  RH  078%=      5-min Rain = 0
KEA1 201036Z 17010KT M02/M05 A3023 RMK A01 T10191052  RH  078%=      5-min Rain = 0
KEA1 201037Z 16010KT M02/M05 A3023 RMK A01 T10191051  RH  079%=      5-min Rain = 0
KEA1 201038Z 17009KT M02/M05 A3023 RMK A01 T10191051  RH  079%=      5-min Rain = 0
KEA1 201039Z 16009KT M02/M05 A3023 RMK A01 T10201052  RH  079%=      5-min Rain = 0
KEA1 201040Z 17010KT M02/M05 A3023 RMK A01 T10201052  RH  079%=      5-min Rain = 0
KEA1 201041Z 17010KT M02/M05 A3023 RMK A01 T10201051  RH  079%=      5-min Rain = 0
KEA1 201042Z 17010KT M02/M05 A3023 RMK A01 T10201051  RH  079%=      5-min Rain = 0
KEA1 201043Z 17010KT M02/M05 A3023 RMK A01 T10201052  RH  079%=      5-min Rain = 0
KEA1 201044Z 17010KT M02/M05 A3023 RMK A01 T10201051  RH  079%=      5-min Rain = 0
KEA1 201045Z 17010KT M02/M05 A3023 RMK A01 T10211052  RH  079%=      5-min Rain = 0
KEA1 201046Z 17009KT M02/M05 A3023 RMK A01 T10211052  RH  080%=      5-min Rain = 0
KEA1 201047Z 17009KT M02/M05 A3023 RMK A01 T10211052  RH  080%=      5-min Rain = 0
KEA1 201048Z 17010KT M02/M05 A3023 RMK A01 T10211052  RH  080%=      5-min Rain = 0
KEA1 201049Z 17009KT M02/M05 A3023 RMK A01 T10211052  RH  080%=      5-min Rain = 0
KEA1 201050Z 17011KT M02/M05 A3023 RMK A01 T10221052  RH  080%=      5-min Rain = 0
KEA1 201051Z 17010KT M02/M05 A3023 RMK A01 T10221052  RH  080%=      5-min Rain = 0
KEA1 201052Z 17010KT M02/M05 A3023 RMK A01 T10221051  RH  080%=      5-min Rain = 0
KEA1 201053Z 17010KT M02/M05 A3023 RMK A01 T10221051  RH  080%=      5-min Rain = 0
KEA1 201054Z 17010KT M02/M05 A3023 RMK A01 T10221051  RH  080%=      5-min Rain = 0
KEA1 201055Z 17010KT M02/M05 A3023 RMK A01 T10211051  RH  080%=      5-min Rain = 0
KEA1 201056Z 17011KT M02/M05 A3023 RMK A01 T10211051  RH  080%=      5-min Rain = 0
KEA1 201057Z 17011KT M02/M05 A3023 RMK A01 T10211051  RH  080%=      5-min Rain = 0
KEA1 201058Z 17010KT M02/M05 A3023 RMK A01 T10201051  RH  080%=      5-min Rain = 0
KEA1 201059Z 17010KT M02/M05 A3023 RMK A01 T10201051  RH  080%=      5-min Rain = 0
KEA1 201100Z 17011KT M02/M05 A3023 RMK A01 T10201051  RH  080%=      5-min Rain = 0
KEA1 201101Z 17011KT M02/M05 A3023 RMK A01 T10201051  RH  080%=      5-min Rain = 0
KEA1 201102Z 17010KT M02/M05 A3023 RMK A01 T10201050  RH  080%=      5-min Rain = 0
KEA1 201103Z 17010KT M02/M05 A3023 RMK A01 T10201050  RH  080%=      5-min Rain = 0
KEA1 201104Z 17010KT M02/M05 A3023 RMK A01 T10201051  RH  079%=      5-min Rain = 0
KEA1 201105Z 17011KT M02/M05 A3023 RMK A01 T10201050  RH  080%=      5-min Rain = 0
KEA1 201106Z 17011KT M02/M05 A3023 RMK A01 T10191050  RH  079%=      5-min Rain = 0
KEA1 201107Z 17010KT M02/M05 A3023 RMK A01 T10191050  RH  079%=      5-min Rain = 0
KEA1 201108Z 17012KT M02/M05 A3022 RMK A01 T10191050  RH  079%=      5-min Rain = 0
KEA1 201109Z 17011KT M02/M05 A3022 RMK A01 T10181050  RH  079%=      5-min Rain = 0
KEA1 201110Z 17010KT M02/M05 A3022 RMK A01 T10171049  RH  079%=      5-min Rain = 0
KEA1 201111Z 17011KT M02/M05 A3022 RMK A01 T10171049  RH  079%=      5-min Rain = 0
KEA1 201112Z 17011KT M02/M05 A3022 RMK A01 T10171049  RH  079%=      5-min Rain = 0
KEA1 201113Z 17010KT M02/M05 A3022 RMK A01 T10171049  RH  079%=      5-min Rain = 0
KEA1 201114Z 17011KT M02/M05 A3022 RMK A01 T10171049  RH  079%=      5-min Rain = 0
KEA1 201115Z 18010KT M02/M05 A3022 RMK A01 T10171050  RH  079%=      5-min Rain = 0
KEA1 201116Z 17010KT M02/M05 A3022 RMK A01 T10171049  RH  079%=      5-min Rain = 0
KEA1 201117Z 17011KT M02/M05 A3022 RMK A01 T10151048  RH  078%=      5-min Rain = 0
KEA1 201118Z 17011KT M02/M05 A3022 RMK A01 T10151048  RH  078%=      5-min Rain = 0
KEA1 201119Z 17010KT M02/M05 A3022 RMK A01 T10151048  RH  078%=      5-min Rain = 0
KEA1 201120Z 17011KT M02/M05 A3022 RMK A01 T10151048  RH  078%=      5-min Rain = 0
KEA1 201121Z 17011KT M02/M05 A3022 RMK A01 T10151048  RH  078%=      5-min Rain = 0
KEA1 201122Z 17012KT M02/M05 A3022 RMK A01 T10151048  RH  078%=      5-min Rain = 0
KEA1 201123Z 17013KT M02/M05 A3022 RMK A01 T10151048  RH  078%=      5-min Rain = 0
KEA1 201124Z 17013KT M01/M05 A3021 RMK A01 T10141047  RH  078%=      5-min Rain = 0
KEA1 201125Z 17012KT M01/M05 A3021 RMK A01 T10141047  RH  078%=      5-min Rain = 0
KEA1 201126Z 18011KT M01/M05 A3021 RMK A01 T10131047  RH  078%=      5-min Rain = 0
KEA1 201127Z 18011KT M01/M05 A3021 RMK A01 T10131047  RH  078%=      5-min Rain = 0
KEA1 201128Z 18010KT M01/M05 A3021 RMK A01 T10141048  RH  078%=      5-min Rain = 0
KEA1 201129Z 18010KT M01/M05 A3021 RMK A01 T10141048  RH  078%=      5-min Rain = 0
KEA1 201130Z 18011KT M01/M05 A3021 RMK A01 T10131047  RH  078%=      5-min Rain = 0
KEA1 201131Z 18011KT M01/M05 A3021 RMK A01 T10131047  RH  078%=      5-min Rain = 0
KEA1 201132Z 17011KT M01/M05 A3021 RMK A01 T10131047  RH  078%=      5-min Rain = 0
KEA1 201133Z 17012KT M01/M05 A3021 RMK A01 T10121047  RH  077%=      5-min Rain = 0
KEA1 201134Z 17012KT M01/M05 A3021 RMK A01 T10111047  RH  077%=      5-min Rain = 0
KEA1 201135Z 17011KT M01/M05 A3021 RMK A01 T10111047  RH  077%=      5-min Rain = 0
KEA1 201136Z 17011KT M01/M05 A3021 RMK A01 T10121047  RH  077%=      5-min Rain = 0
KEA1 201137Z 17012KT M01/M05 A3021 RMK A01 T10121047  RH  077%=      5-min Rain = 0
KEA1 201138Z 17012KT M01/M05 A3021 RMK A01 T10121047  RH  077%=      5-min Rain = 0
KEA1 201139Z 17011KT M01/M05 A3021 RMK A01 T10121047  RH  077%=      5-min Rain = 0
KEA1 201140Z 17012KT M01/M05 A3021 RMK A01 T10121047  RH  077%=      5-min Rain = 0
KEA1 201141Z 17011KT M01/M05 A3021 RMK A01 T10121047  RH  077%=      5-min Rain = 0
KEA1 201142Z 17011KT M01/M05 A3021 RMK A01 T10121047  RH  077%=      5-min Rain = 0
KEA1 201143Z 18012KT M01/M05 A3021 RMK A01 T10121047  RH  077%=      5-min Rain = 0
KEA1 201144Z 18011KT M01/M05 A3021 RMK A01 T10121047  RH  077%=      5-min Rain = 0
KEA1 201145Z 18011KT M01/M05 A3021 RMK A01 T10111047  RH  077%=      5-min Rain = 0
KEA1 201146Z 18011KT M01/M05 A3021 RMK A01 T10111047  RH  077%=      5-min Rain = 0
KEA1 201147Z 17011KT M01/M05 A3021 RMK A01 T10111047  RH  077%=      5-min Rain = 0
KEA1 201148Z 18012KT M01/M05 A3021 RMK A01 T10111047  RH  077%=      5-min Rain = 0
KEA1 201149Z 17011KT M01/M05 A3021 RMK A01 T10111047  RH  077%=      5-min Rain = 0
KEA1 201150Z 17011KT M01/M05 A3021 RMK A01 T10111047  RH  077%=      5-min Rain = 0
KEA1 201151Z 17010KT M01/M05 A3021 RMK A01 T10111047  RH  076%=      5-min Rain = 0
KEA1 201152Z 17010KT M01/M05 A3021 RMK A01 T10111047  RH  076%=      5-min Rain = 0
KEA1 201153Z 17010KT M01/M05 A3021 RMK A01 T10101046  RH  077%=      5-min Rain = 0
KEA1 201154Z 17011KT M01/M05 A3021 RMK A01 T10101046  RH  077%=      5-min Rain = 0
KEA1 201155Z 17010KT M01/M05 A3021 RMK A01 T10111046  RH  077%=      5-min Rain = 0
KEA1 201156Z 17010KT M01/M05 A3021 RMK A01 T10111047  RH  077%=      5-min Rain = 0
KEA1 201157Z 17010KT M01/M05 A3021 RMK A01 T10101046  RH  077%=      5-min Rain = 0
KEA1 201158Z 18011KT M01/M05 A3021 RMK A01 T10111047  RH  077%=      5-min Rain = 0
KEA1 201159Z 18010KT M01/M05 A3021 RMK A01 T10101046  RH  077%=      5-min Rain = 0
KEA1 201200Z 18012KT M01/M05 A3021 RMK A01 T10101046  RH  076%=      5-min Rain = 0
KEA1 201201Z 18011KT M01/M05 A3021 RMK A01 T10101046  RH  076%=      5-min Rain = 0
KEA1 201202Z 18012KT M01/M05 A3021 RMK A01 T10091046  RH  076%=      5-min Rain = 0
KEA1 201203Z 18012KT M01/M05 A3021 RMK A01 T10091046  RH  076%=      5-min Rain = 0
KEA1 201204Z 18012KT M01/M05 A3021 RMK A01 T10081046  RH  076%=      5-min Rain = 0
KEA1 201205Z 17012KT M01/M05 A3021 RMK A01 T10081046  RH  075%=      5-min Rain = 0
KEA1 201206Z 17011KT M01/M05 A3021 RMK A01 T10071046  RH  075%=      5-min Rain = 0
KEA1 201207Z 17011KT M01/M05 A3021 RMK A01 T10071046  RH  075%=      5-min Rain = 0
KEA1 201208Z 17010KT M01/M05 A3021 RMK A01 T10071046  RH  075%=      5-min Rain = 0
KEA1 201209Z 17010KT M01/M05 A3021 RMK A01 T10071046  RH  075%=      5-min Rain = 0
KEA1 201210Z 17011KT M01/M05 A3021 RMK A01 T10071046  RH  075%=      5-min Rain = 0
KEA1 201211Z 17012KT M01/M05 A3021 RMK A01 T10061046  RH  075%=      5-min Rain = 0
KEA1 201212Z 17011KT M01/M05 A3021 RMK A01 T10061045  RH  074%=      5-min Rain = 0
KEA1 201213Z 18012KT M01/M05 A3021 RMK A01 T10051045  RH  074%=      5-min Rain = 0
KEA1 201214Z 18010KT M00/M05 A3021 RMK A01 T10041045  RH  074%=      5-min Rain = 0
KEA1 201215Z 18011KT M00/M05 A3021 RMK A01 T10041045  RH  074%=      5-min Rain = 0
KEA1 201216Z 18012KT M00/M05 A3021 RMK A01 T10041045  RH  074%=      5-min Rain = 0
KEA1 201217Z 17012KT M00/M05 A3021 RMK A01 T10031045  RH  073%=      5-min Rain = 0
KEA1 201218Z 18011KT M00/M05 A3021 RMK A01 T10021045  RH  073%=      5-min Rain = 0
KEA1 201219Z 18012KT M00/M05 A3021 RMK A01 T10021045  RH  073%=      5-min Rain = 0
KEA1 201220Z 17011KT M00/M05 A3021 RMK A01 T10021045  RH  073%=      5-min Rain = 0
KEA1 201221Z 18013KT M00/M05 A3021 RMK A01 T10021045  RH  073%=      5-min Rain = 0
KEA1 201222Z 17012KT M00/M05 A3021 RMK A01 T10021045  RH  073%=      5-min Rain = 0
KEA1 201223Z 18011KT M00/M05 A3021 RMK A01 T10011045  RH  072%=      5-min Rain = 0
KEA1 201224Z 18010KT M00/M05 A3021 RMK A01 T10011045  RH  072%=      5-min Rain = 0
KEA1 201225Z 17010KT M00/M05 A3021 RMK A01 T10021045  RH  073%=      5-min Rain = 0
KEA1 201226Z 17012KT M00/M05 A3021 RMK A01 T10021045  RH  073%=      5-min Rain = 0
KEA1 201227Z 17011KT M00/M05 A3021 RMK A01 T10021045  RH  073%=      5-min Rain = 0
KEA1 201228Z 17010KT M00/M05 A3021 RMK A01 T10031046  RH  073%=      5-min Rain = 0
KEA1 201229Z 17010KT M00/M05 A3021 RMK A01 T10031046  RH  073%=      5-min Rain = 0
KEA1 201230Z 17011KT M00/M05 A3021 RMK A01 T10041046  RH  073%=      5-min Rain = 0
KEA1 201231Z 17011KT M00/M05 A3021 RMK A01 T10041046  RH  073%=      5-min Rain = 0
KEA1 201232Z 17012KT M01/M05 A3021 RMK A01 T10051046  RH  073%=      5-min Rain = 0
KEA1 201233Z 17011KT M01/M05 A3021 RMK A01 T10051046  RH  074%=      5-min Rain = 0
KEA1 201234Z 17012KT M01/M05 A3021 RMK A01 T10051046  RH  074%=      5-min Rain = 0
KEA1 201235Z 17012KT M01/M05 A3021 RMK A01 T10051046  RH  074%=      5-min Rain = 0
KEA1 201236Z 17012KT M01/M05 A3021 RMK A01 T10051046  RH  074%=      5-min Rain = 0
KEA1 201237Z 17012KT M01/M05 A3021 RMK A01 T10051046  RH  074%=      5-min Rain = 0
KEA1 201238Z 17011KT M01/M05 A3021 RMK A01 T10051046  RH  074%=      5-min Rain = 0
KEA1 201239Z 17012KT M01/M05 A3021 RMK A01 T10061046  RH  074%=      5-min Rain = 0
KEA1 201240Z 17011KT M01/M05 A3021 RMK A01 T10061047  RH  074%=      5-min Rain = 0
KEA1 201241Z 17013KT M01/M05 A3021 RMK A01 T10061047  RH  074%=      5-min Rain = 0
KEA1 201242Z 17012KT M01/M05 A3021 RMK A01 T10061046  RH  074%=      5-min Rain = 0
KEA1 201243Z 17012KT M01/M05 A3021 RMK A01 T10061046  RH  074%=      5-min Rain = 0
KEA1 201244Z 17012KT M01/M05 A3021 RMK A01 T10061046  RH  074%=      5-min Rain = 0
KEA1 201245Z 17011KT M01/M05 A3021 RMK A01 T10061047  RH  074%=      5-min Rain = 0
KEA1 201246Z 17011KT M01/M05 A3021 RMK A01 T10071047  RH  074%=      5-min Rain = 0
KEA1 201247Z 17011KT M01/M05 A3021 RMK A01 T10061046  RH  074%=      5-min Rain = 0
KEA1 201248Z 17010KT M01/M05 A3021 RMK A01 T10071047  RH  074%=      5-min Rain = 0
KEA1 201249Z 18011KT M01/M05 A3021 RMK A01 T10071047  RH  075%=      5-min Rain = 0
KEA1 201250Z 18011KT M01/M05 A3021 RMK A01 T10071047  RH  075%=      5-min Rain = 0
KEA1 201251Z 18011KT M01/M05 A3021 RMK A01 T10081047  RH  075%=      5-min Rain = 0
KEA1 201252Z 18010KT M01/M05 A3021 RMK A01 T10071046  RH  075%=      5-min Rain = 0
KEA1 201253Z 18011KT M01/M05 A3021 RMK A01 T10071047  RH  075%=      5-min Rain = 0
KEA1 201254Z 18011KT M01/M05 A3021 RMK A01 T10081047  RH  075%=      5-min Rain = 0
KEA1 201255Z 18011KT M01/M05 A3021 RMK A01 T10071047  RH  075%=      5-min Rain = 0
KEA1 201256Z 18012KT M01/M05 A3021 RMK A01 T10071046  RH  075%=      5-min Rain = 0
KEA1 201257Z 18011KT M01/M05 A3021 RMK A01 T10071046  RH  075%=      5-min Rain = 0
KEA1 201258Z 17010KT M01/M05 A3021 RMK A01 T10061046  RH  075%=      5-min Rain = 0
KEA1 201259Z 17011KT M01/M05 A3021 RMK A01 T10061046  RH  074%=      5-min Rain = 0
KEA1 201300Z 17011KT M01/M05 A3021 RMK A01 T10071046  RH  074%=      5-min Rain = 0
KEA1 201301Z 17011KT M01/M05 A3021 RMK A01 T10061046  RH  075%=      5-min Rain = 0
KEA1 201302Z 17011KT M01/M05 A3021 RMK A01 T10061046  RH  074%=      5-min Rain = 0
KEA1 201303Z 17010KT M01/M05 A3021 RMK A01 T10061046  RH  074%=      5-min Rain = 0
KEA1 201304Z 17010KT M01/M05 A3021 RMK A01 T10061046  RH  075%=      5-min Rain = 0
KEA1 201305Z 17011KT M01/M05 A3021 RMK A01 T10061046  RH  075%=      5-min Rain = 0
KEA1 201306Z 18010KT M01/M05 A3021 RMK A01 T10071046  RH  075%=      5-min Rain = 0
KEA1 201307Z 18010KT M01/M05 A3021 RMK A01 T10071046  RH  075%=      5-min Rain = 0
KEA1 201308Z 18009KT M01/M05 A3021 RMK A01 T10071046  RH  075%=      5-min Rain = 0
KEA1 201309Z 18009KT M01/M05 A3021 RMK A01 T10061046  RH  075%=      5-min Rain = 0
KEA1 201310Z 17010KT M01/M05 A3021 RMK A01 T10071046  RH  075%=      5-min Rain = 0
KEA1 201311Z 18011KT M01/M05 A3021 RMK A01 T10071046  RH  075%=      5-min Rain = 0
KEA1 201312Z 17010KT M01/M05 A3022 RMK A01 T10071045  RH  075%=      5-min Rain = 0
KEA1 201313Z 17011KT M01/M05 A3022 RMK A01 T10061045  RH  075%=      5-min Rain = 0
KEA1 201314Z 18011KT M01/M05 A3022 RMK A01 T10061045  RH  075%=      5-min Rain = 0
KEA1 201315Z 18011KT M01/M05 A3022 RMK A01 T10061045  RH  075%=      5-min Rain = 0
KEA1 201316Z 18010KT M01/M05 A3022 RMK A01 T10061045  RH  075%=      5-min Rain = 0
KEA1 201317Z 18011KT M01/M05 A3022 RMK A01 T10061045  RH  075%=      5-min Rain = 0
KEA1 201318Z 18012KT M01/M05 A3022 RMK A01 T10061045  RH  075%=      5-min Rain = 0
KEA1 201319Z 18010KT M01/M05 A3022 RMK A01 T10061045  RH  075%=      5-min Rain = 0
KEA1 201320Z 18011KT M01/M05 A3022 RMK A01 T10061045  RH  075%=      5-min Rain = 0
KEA1 201321Z 18010KT M01/M05 A3022 RMK A01 T10071045  RH  075%=      5-min Rain = 0
KEA1 201322Z 18010KT M01/M05 A3022 RMK A01 T10071046  RH  075%=      5-min Rain = 0
KEA1 201323Z 17010KT M01/M05 A3022 RMK A01 T10071046  RH  075%=      5-min Rain = 0
KEA1 201324Z 18010KT M01/M05 A3022 RMK A01 T10071046  RH  075%=      5-min Rain = 0
KEA1 201325Z 18011KT M01/M05 A3022 RMK A01 T10071046  RH  075%=      5-min Rain = 0
KEA1 201326Z 18011KT M01/M05 A3022 RMK A01 T10071046  RH  075%=      5-min Rain = 0
KEA1 201327Z 18010KT M01/M05 A3022 RMK A01 T10081046  RH  075%=      5-min Rain = 0
KEA1 201328Z 18011KT M01/M05 A3022 RMK A01 T10071046  RH  075%=      5-min Rain = 0
KEA1 201329Z 18010KT M01/M05 A3022 RMK A01 T10081046  RH  075%=      5-min Rain = 0
KEA1 201330Z 18011KT M01/M05 A3022 RMK A01 T10081046  RH  075%=      5-min Rain = 0
KEA1 201331Z 18012KT M01/M05 A3021 RMK A01 T10081046  RH  076%=      5-min Rain = 0
KEA1 201332Z 18011KT M01/M05 A3022 RMK A01 T10081045  RH  076%=      5-min Rain = 0
KEA1 201333Z 18012KT M01/M05 A3022 RMK A01 T10071045  RH  075%=      5-min Rain = 0
KEA1 201334Z 18012KT M01/M05 A3022 RMK A01 T10081046  RH  075%=      5-min Rain = 0
KEA1 201335Z 18011KT M01/M05 A3022 RMK A01 T10071046  RH  075%=      5-min Rain = 0
KEA1 201336Z 18011KT M01/M05 A3022 RMK A01 T10071046  RH  075%=      5-min Rain = 0
KEA1 201337Z 18012KT M01/M05 A3022 RMK A01 T10081046  RH  075%=      5-min Rain = 0
KEA1 201338Z 18012KT M01/M05 A3022 RMK A01 T10071046  RH  075%=      5-min Rain = 0
KEA1 201339Z 18012KT M01/M05 A3021 RMK A01 T10071046  RH  075%=      5-min Rain = 0
KEA1 201340Z 18011KT M01/M05 A3021 RMK A01 T10061045  RH  075%=      5-min Rain = 0
KEA1 201341Z 18012KT M01/M05 A3021 RMK A01 T10071045  RH  075%=      5-min Rain = 0
KEA1 201342Z 18012KT M01/M05 A3021 RMK A01 T10071046  RH  075%=      5-min Rain = 0
KEA1 201343Z 18012KT M01/M05 A3022 RMK A01 T10061045  RH  075%=      5-min Rain = 0
KEA1 201344Z 18012KT M01/M05 A3022 RMK A01 T10071045  RH  075%=      5-min Rain = 0
KEA1 201345Z 18012KT M01/M05 A3022 RMK A01 T10071046  RH  075%=      5-min Rain = 0
KEA1 201346Z 18011KT M01/M05 A3022 RMK A01 T10071045  RH  075%=      5-min Rain = 0
KEA1 201347Z 18012KT M01/M05 A3022 RMK A01 T10061045  RH  075%=      5-min Rain = 0
KEA1 201348Z 18011KT M01/M05 A3022 RMK A01 T10061045  RH  075%=      5-min Rain = 0
KEA1 201349Z 18012KT M01/M05 A3021 RMK A01 T10061045  RH  075%=      5-min Rain = 0
KEA1 201350Z 18012KT M01/M05 A3021 RMK A01 T10061045  RH  075%=      5-min Rain = 0
KEA1 201351Z 18011KT M01/M05 A3021 RMK A01 T10061045  RH  075%=      5-min Rain = 0
KEA1 201352Z 18011KT M01/M04 A3021 RMK A01 T10051044  RH  075%=      5-min Rain = 0
KEA1 201353Z 18012KT M01/M04 A3021 RMK A01 T10051044  RH  075%=      5-min Rain = 0
KEA1 201354Z 18011KT M01/M05 A3021 RMK A01 T10061045  RH  075%=      5-min Rain = 0
KEA1 201355Z 18012KT M01/M05 A3021 RMK A01 T10061045  RH  075%=      5-min Rain = 0
KEA1 201356Z 18011KT M01/M05 A3022 RMK A01 T10061045  RH  075%=      5-min Rain = 0
KEA1 201357Z 18014KT M01/M05 A3021 RMK A01 T10061045  RH  075%=      5-min Rain = 0
KEA1 201358Z 18013KT M01/M05 A3022 RMK A01 T10051045  RH  075%=      5-min Rain = 0
KEA1 201359Z 18013KT M01/M05 A3022 RMK A01 T10061045  RH  075%=      5-min Rain = 0
KEA1 201400Z 18012KT M01/M05 A3022 RMK A01 T10061046  RH  075%=      5-min Rain = 0
KEA1 201401Z 18013KT M01/M05 A3022 RMK A01 T10061046  RH  075%=      5-min Rain = 0
KEA1 201402Z 18012KT M01/M05 A3022 RMK A01 T10061045  RH  075%=      5-min Rain = 0
KEA1 201403Z 18013KT M01/M05 A3022 RMK A01 T10071046  RH  075%=      5-min Rain = 0
KEA1 201404Z 18013KT M01/M05 A3022 RMK A01 T10071046  RH  075%=      5-min Rain = 0
KEA1 201405Z 18012KT M01/M05 A3021 RMK A01 T10061045  RH  075%=      5-min Rain = 0
KEA1 201406Z 18013KT M01/M05 A3021 RMK A01 T10061045  RH  075%=      5-min Rain = 0
KEA1 201407Z 18011KT M01/M05 A3021 RMK A01 T10071045  RH  075%=      5-min Rain = 0
KEA1 201408Z 18011KT M01/M05 A3021 RMK A01 T10071045  RH  075%=      5-min Rain = 0
KEA1 201409Z 18013KT M01/M05 A3021 RMK A01 T10071045  RH  075%=      5-min Rain = 0
KEA1 201410Z 18011KT M01/M05 A3022 RMK A01 T10071045  RH  075%=      5-min Rain = 0
KEA1 201411Z 18012KT M01/M05 A3022 RMK A01 T10061045  RH  075%=      5-min Rain = 0
KEA1 201412Z 18012KT M01/M05 A3022 RMK A01 T10061045  RH  075%=      5-min Rain = 0
KEA1 201413Z 18011KT M01/M05 A3022 RMK A01 T10061045  RH  075%=      5-min Rain = 0
KEA1 201414Z 18012KT M01/M05 A3022 RMK A01 T10061045  RH  075%=      5-min Rain = 0
KEA1 201415Z 18011KT M01/M05 A3022 RMK A01 T10061045  RH  075%=      5-min Rain = 0
KEA1 201416Z 18012KT M01/M05 A3021 RMK A01 T10061045  RH  075%=      5-min Rain = 0
KEA1 201417Z 18012KT M01/M05 A3021 RMK A01 T10061045  RH  075%=      5-min Rain = 0
KEA1 201418Z 18011KT M01/M05 A3021 RMK A01 T10061045  RH  075%=      5-min Rain = 0
KEA1 201419Z 18011KT M01/M05 A3021 RMK A01 T10061045  RH  075%=      5-min Rain = 0
KEA1 201420Z 18010KT M01/M05 A3021 RMK A01 T10051045  RH  075%=      5-min Rain = 0
KEA1 201421Z 18010KT M01/M05 A3021 RMK A01 T10051045  RH  075%=      5-min Rain = 0
KEA1 201422Z 18010KT M01/M05 A3021 RMK A01 T10061045  RH  075%=      5-min Rain = 0
KEA1 201423Z 18011KT M01/M04 A3021 RMK A01 T10051044  RH  075%=      5-min Rain = 0
KEA1 201424Z 18011KT M00/M04 A3022 RMK A01 T10041044  RH  074%=      5-min Rain = 0
KEA1 201425Z 18011KT M00/M04 A3022 RMK A01 T10041044  RH  074%=      5-min Rain = 0
KEA1 201426Z 18011KT M00/M04 A3021 RMK A01 T10041044  RH  074%=      5-min Rain = 0
KEA1 201427Z 18012KT M00/M04 A3021 RMK A01 T10041044  RH  074%=      5-min Rain = 0
KEA1 201428Z 18012KT M00/M04 A3021 RMK A01 T10031044  RH  074%=      5-min Rain = 0
KEA1 201429Z 18012KT M00/M04 A3021 RMK A01 T10031044  RH  074%=      5-min Rain = 0
KEA1 201430Z 18014KT M00/M04 A3021 RMK A01 T10021043  RH  074%=      5-min Rain = 0
KEA1 201431Z 18013KT M00/M04 A3021 RMK A01 T10021044  RH  073%=      5-min Rain = 0
KEA1 201432Z 18013KT M00/M04 A3021 RMK A01 T10011044  RH  073%=      5-min Rain = 0
KEA1 201433Z 18012KT M00/M04 A3021 RMK A01 T10011043  RH  073%=      5-min Rain = 0
KEA1 201434Z 18013KT M00/M04 A3021 RMK A01 T10011043  RH  073%=      5-min Rain = 0
KEA1 201435Z 18012KT 00/04 A3021 RMK A01 T00-00-43  RH  073%=      5-min Rain = 0
KEA1 201436Z 18013KT M00/M04 A3021 RMK A01 T10011043  RH  073%=      5-min Rain = 0
KEA1 201437Z 18014KT 00/04 A3021 RMK A01 T00-00-43  RH  073%=      5-min Rain = 0
KEA1 201438Z 18013KT 00/04 A3021 RMK A01 T00-00-43  RH  073%=      5-min Rain = 0
KEA1 201439Z 18013KT 00/04 A3021 RMK A01 T00-00-43  RH  073%=      5-min Rain = 0
KEA1 201440Z 18012KT 00/04 A3021 RMK A01 T00000-43  RH  073%=      5-min Rain = 0
KEA1 201441Z 18013KT 00/04 A3021 RMK A01 T00000-43  RH  073%=      5-min Rain = 0
KEA1 201442Z 18013KT 00/M04 A3021 RMK A01 T00011042  RH  073%=      5-min Rain = 0
KEA1 201443Z 19013KT 00/M04 A3021 RMK A01 T00021042  RH  072%=      5-min Rain = 0
KEA1 201444Z 18013KT 00/M04 A3021 RMK A01 T00021042  RH  072%=      5-min Rain = 0
KEA1 201445Z 19013KT 00/M04 A3021 RMK A01 T00031042  RH  072%=      5-min Rain = 0
KEA1 201446Z 19013KT 00/M04 A3021 RMK A01 T00031041  RH  072%=      5-min Rain = 0
KEA1 201447Z 19012KT 00/M04 A3021 RMK A01 T00041041  RH  072%=      5-min Rain = 0
KEA1 201448Z 18012KT 00/M04 A3021 RMK A01 T00041041  RH  072%=      5-min Rain = 0
KEA1 201449Z 18012KT 01/M04 A3021 RMK A01 T00051041  RH  072%=      5-min Rain = 0
KEA1 201450Z 18014KT 01/M04 A3021 RMK A01 T00051041  RH  071%=      5-min Rain = 0
KEA1 201451Z 18013KT 01/M04 A3021 RMK A01 T00051041  RH  071%=      5-min Rain = 0
KEA1 201452Z 18012KT 01/M04 A3021 RMK A01 T00051041  RH  071%=      5-min Rain = 0
KEA1 201453Z 18014KT 01/M04 A3021 RMK A01 T00061041  RH  071%=      5-min Rain = 0
KEA1 201454Z 18013KT 01/M04 A3021 RMK A01 T00061041  RH  070%=      5-min Rain = 0
KEA1 201455Z 19014KT 01/M04 A3021 RMK A01 T00061041  RH  070%=      5-min Rain = 0
KEA1 201456Z 19013KT 01/M04 A3021 RMK A01 T00071041  RH  070%=      5-min Rain = 0
KEA1 201457Z 19012KT 01/M04 A3021 RMK A01 T00071041  RH  070%=      5-min Rain = 0
KEA1 201458Z 19014KT 01/M04 A3021 RMK A01 T00081041  RH  070%=      5-min Rain = 0
KEA1 201459Z 19012KT 01/M04 A3021 RMK A01 T00081041  RH  070%=      5-min Rain = 0
KEA1 201500Z 19013KT 01/M04 A3021 RMK A01 T00081041  RH  070%=      5-min Rain = 0
KEA1 201501Z 18011KT 01/M04 A3021 RMK A01 T00081040  RH  070%=      5-min Rain = 0
KEA1 201502Z 19012KT 01/M04 A3021 RMK A01 T00091040  RH  070%=      5-min Rain = 0
KEA1 201503Z 19013KT 01/M04 A3021 RMK A01 T00091040  RH  069%=      5-min Rain = 0
KEA1 201504Z 19012KT 01/M04 A3021 RMK A01 T00091041  RH  069%=      5-min Rain = 0
KEA1 201505Z 19011KT 01/M04 A3021 RMK A01 T00101040  RH  069%=      5-min Rain = 0
KEA1 201506Z 19012KT 01/M04 A3021 RMK A01 T00101040  RH  069%=      5-min Rain = 0
KEA1 201507Z 19011KT 01/M04 A3021 RMK A01 T00101040  RH  069%=      5-min Rain = 0
KEA1 201508Z 19012KT 01/M04 A3021 RMK A01 T00101040  RH  069%=      5-min Rain = 0
KEA1 201509Z 19013KT 01/M04 A3021 RMK A01 T00111040  RH  069%=      5-min Rain = 0
KEA1 201510Z 19013KT 01/M04 A3021 RMK A01 T00111040  RH  069%=      5-min Rain = 0
KEA1 201511Z 19011KT 01/M04 A3021 RMK A01 T00121040  RH  069%=      5-min Rain = 0
KEA1 201512Z 19012KT 01/M04 A3021 RMK A01 T00121039  RH  069%=      5-min Rain = 0
KEA1 201513Z 19012KT 01/M04 A3021 RMK A01 T00131039  RH  068%=      5-min Rain = 0
KEA1 201514Z 19012KT 01/M04 A3021 RMK A01 T00131039  RH  068%=      5-min Rain = 0
KEA1 201515Z 19013KT 01/M04 A3021 RMK A01 T00141039  RH  068%=      5-min Rain = 0
KEA1 201516Z 19012KT 02/M04 A3021 RMK A01 T00151039  RH  068%=      5-min Rain = 0
KEA1 201517Z 19011KT 02/M04 A3021 RMK A01 T00151039  RH  067%=      5-min Rain = 0
KEA1 201518Z 19010KT 02/M04 A3021 RMK A01 T00161037  RH  068%=      5-min Rain = 0
KEA1 201519Z 19011KT 02/M04 A3021 RMK A01 T00171037  RH  067%=      5-min Rain = 0
KEA1 201520Z 19012KT 02/M04 A3021 RMK A01 T00171038  RH  067%=      5-min Rain = 0
KEA1 201521Z 19013KT 02/M04 A3021 RMK A01 T00181038  RH  066%=      5-min Rain = 0
KEA1 201522Z 19012KT 02/M04 A3021 RMK A01 T00171039  RH  066%=      5-min Rain = 0
KEA1 201523Z 19011KT 02/M04 A3021 RMK A01 T00171039  RH  066%=      5-min Rain = 0
KEA1 201524Z 19013KT 02/M04 A3021 RMK A01 T00181038  RH  067%=      5-min Rain = 0
KEA1 201525Z 19012KT 02/M04 A3021 RMK A01 T00181038  RH  066%=      5-min Rain = 0
KEA1 201526Z 19012KT 02/M04 A3021 RMK A01 T00181038  RH  066%=      5-min Rain = 0
KEA1 201527Z 18013KT 02/M04 A3021 RMK A01 T00191038  RH  066%=      5-min Rain = 0
KEA1 201528Z 18012KT 02/M04 A3021 RMK A01 T00201037  RH  066%=      5-min Rain = 0
KEA1 201529Z 18011KT 02/M04 A3021 RMK A01 T00211037  RH  066%=      5-min Rain = 0
KEA1 201530Z 18010KT 02/M04 A3021 RMK A01 T00231035  RH  066%=      5-min Rain = 0
KEA1 201531Z 18011KT 02/M04 A3021 RMK A01 T00241035  RH  065%=      5-min Rain = 0
KEA1 201532Z 19011KT 02/M04 A302 RMK A01 T00241037  RH  064%=      5-min Rain = 0
KEA1 201533Z 19011KT 03/M04 A302 RMK A01 T00251036  RH  064%=      5-min Rain = 0
KEA1 201534Z 19011KT 03/M04 A302 RMK A01 T00261036  RH  064%=      5-min Rain = 0
KEA1 201535Z 19010KT 03/M04 A302 RMK A01 T00271035  RH  063%=      5-min Rain = 0
KEA1 201536Z 18010KT 03/M04 A302 RMK A01 T00271035  RH  063%=      5-min Rain = 0
KEA1 201537Z 18010KT 03/M03 A302 RMK A01 T00281034  RH  063%=      5-min Rain = 0
KEA1 201538Z 19010KT 03/M03 A302 RMK A01 T00301034  RH  063%=      5-min Rain = 0
KEA1 201539Z 18011KT 03/M04 A302 RMK A01 T00301035  RH  062%=      5-min Rain = 0
KEA1 201540Z 19011KT 03/M04 A302 RMK A01 T00311037  RH  061%=      5-min Rain = 0
KEA1 201541Z 19013KT 03/M04 A302 RMK A01 T00311037  RH  061%=      5-min Rain = 0
KEA1 201542Z 19010KT 03/M04 A302 RMK A01 T00311038  RH  061%=      5-min Rain = 0
KEA1 201543Z 18012KT 03/M04 A302 RMK A01 T00311037  RH  061%=      5-min Rain = 0
KEA1 201544Z 19011KT 03/M04 A302 RMK A01 T00311038  RH  060%=      5-min Rain = 0
KEA1 201545Z 18009KT 03/M04 A302 RMK A01 T00321036  RH  061%=      5-min Rain = 0
KEA1 201546Z 18012KT 03/M04 A302 RMK A01 T00341035  RH  060%=      5-min Rain = 0
KEA1 201547Z 18011KT 03/M04 A302 RMK A01 T00341037  RH  059%=      5-min Rain = 0
KEA1 201548Z 18010KT 03/M04 A302 RMK A01 T00341037  RH  060%=      5-min Rain = 0
KEA1 201549Z 19009KT 04/M03 A302 RMK A01 T00361034  RH  060%=      5-min Rain = 0
KEA1 201550Z 18009KT 04/M03 A302 RMK A01 T00381034  RH  059%=      5-min Rain = 0
KEA1 201551Z 18009KT 04/M04 A302 RMK A01 T00391035  RH  059%=      5-min Rain = 0
KEA1 201552Z 18009KT 04/M03 A302 RMK A01 T00401033  RH  059%=      5-min Rain = 0
KEA1 201553Z 18010KT 04/M03 A302 RMK A01 T00411034  RH  058%=      5-min Rain = 0
KEA1 201554Z 19010KT 04/M04 A302 RMK A01 T00411035  RH  058%=      5-min Rain = 0
KEA1 201555Z 19011KT 04/M03 A302 RMK A01 T00421034  RH  058%=      5-min Rain = 0
KEA1 201556Z 18012KT 04/M04 A302 RMK A01 T00421036  RH  057%=      5-min Rain = 0
KEA1 201557Z 19010KT 04/M04 A3021 RMK A01 T00421036  RH  057%=      5-min Rain = 0
KEA1 201558Z 19010KT 04/M03 A3021 RMK A01 T00441034  RH  057%=      5-min Rain = 0
KEA1 201559Z 19010KT 05/M04 A3021 RMK A01 T00451036  RH  056%=      5-min Rain = 0
KEA1 201600Z 19009KT 05/M04 A3021 RMK A01 T00461035  RH  055%=      5-min Rain = 0
KEA1 201601Z 19009KT 05/M03 A3021 RMK A01 T00481034  RH  055%=      5-min Rain = 0
KEA1 201602Z 18011KT 05/M03 A3021 RMK A01 T00511032  RH  055%=      5-min Rain = 0
KEA1 201603Z 20011KT 05/M03 A3021 RMK A01 T00521034  RH  054%=      5-min Rain = 0
KEA1 201604Z 19013KT 05/M04 A3021 RMK A01 T00521035  RH  053%=      5-min Rain = 0
KEA1 201605Z 19013KT 05/M04 A3021 RMK A01 T00521039  RH  052%=      5-min Rain = 0
KEA1 201606Z 18013KT 05/M04 A3021 RMK A01 T00501040  RH  052%=      5-min Rain = 0
KEA1 201607Z 19012KT 05/M04 A3021 RMK A01 T00501039  RH  053%=      5-min Rain = 0
KEA1 201608Z 19012KT 05/M04 A302 RMK A01 T00501038  RH  053%=      5-min Rain = 0
KEA1 201609Z 19013KT 05/M04 A3021 RMK A01 T00491040  RH  052%=      5-min Rain = 0
KEA1 201610Z 19013KT 05/M04 A302 RMK A01 T00481040  RH  053%=      5-min Rain = 0
KEA1 201611Z 19012KT 05/M04 A3021 RMK A01 T00491038  RH  053%=      5-min Rain = 0
KEA1 201612Z 19013KT 05/M04 A302 RMK A01 T00521037  RH  053%=      5-min Rain = 0
KEA1 201613Z 20012KT 05/M04 A302 RMK A01 T00521039  RH  052%=      5-min Rain = 0
KEA1 201614Z 20013KT 05/M04 A302 RMK A01 T00521038  RH  052%=      5-min Rain = 0
KEA1 201615Z 20014KT 05/M04 A302 RMK A01 T00531040  RH  051%=      5-min Rain = 0
KEA1 201616Z 19013KT 05/M04 A302 RMK A01 T00521040  RH  051%=      5-min Rain = 0
KEA1 201617Z 19011KT 05/M04 A302 RMK A01 T00531039  RH  051%=      5-min Rain = 0
KEA1 201618Z 20010KT 05/M04 A302 RMK A01 T00541038  RH  051%=      5-min Rain = 0
KEA1 201619Z 20011G16KT 06/M04 A3021 RMK A01 T00571036  RH  051%=      5-min Rain = 0
KEA1 201620Z 20014KT 06/M04 A302 RMK A01 T00581041  RH  049%=      5-min Rain = 0
KEA1 201621Z 19013KT 06/M04 A302 RMK A01 T00561042  RH  049%=      5-min Rain = 0
KEA1 201622Z 20011KT 06/M04 A3021 RMK A01 T00561041  RH  050%=      5-min Rain = 0
KEA1 201623Z 20013KT 06/M04 A302 RMK A01 T00581039  RH  050%=      5-min Rain = 0
KEA1 201624Z 20012KT 06/M04 A302 RMK A01 T00581041  RH  049%=      5-min Rain = 0
KEA1 201625Z 20012KT 06/M04 A302 RMK A01 T00581041  RH  049%=      5-min Rain = 0
KEA1 201626Z 20012KT 06/M04 A302 RMK A01 T00571040  RH  049%=      5-min Rain = 0
KEA1 201627Z 20009KT 06/M04 A3021 RMK A01 T00571039  RH  050%=      5-min Rain = 0
KEA1 201628Z 20010KT 06/M03 A3021 RMK A01 T00621034  RH  050%=      5-min Rain = 0
KEA1 201629Z 20010KT 06/M04 A302 RMK A01 T00631036  RH  049%=      5-min Rain = 0
KEA1 201630Z 20009KT 06/M04 A3021 RMK A01 T00631037  RH  049%=      5-min Rain = 0
KEA1 201631Z 20012KT 07/M04 A302 RMK A01 T00671035  RH  048%=      5-min Rain = 0
KEA1 201632Z 21013KT 07/M04 A302 RMK A01 T00681040  RH  046%=      5-min Rain = 0
KEA1 201633Z 21011KT 07/M04 A302 RMK A01 T00671042  RH  046%=      5-min Rain = 0
KEA1 201634Z 21011KT 07/M04 A302 RMK A01 T00681042  RH  046%=      5-min Rain = 0
KEA1 201635Z 22011KT 07/M04 A302 RMK A01 T00671042  RH  045%=      5-min Rain = 0
KEA1 201636Z 20011KT 07/M04 A302 RMK A01 T00681041  RH  046%=      5-min Rain = 0
KEA1 201637Z 21012KT 07/M04 A302 RMK A01 T00701040  RH  045%=      5-min Rain = 0
KEA1 201638Z 20012KT 07/M04 A302 RMK A01 T00721042  RH  044%=      5-min Rain = 0
KEA1 201639Z 21011KT 07/M04 A302 RMK A01 T00721042  RH  044%=      5-min Rain = 0
KEA1 201640Z 21010KT 07/M04 A302 RMK A01 T00721041  RH  044%=      5-min Rain = 0
KEA1 201641Z 19010KT 07/M04 A302 RMK A01 T00721041  RH  044%=      5-min Rain = 0
KEA1 201642Z 20011KT 07/M04 A302 RMK A01 T00741040  RH  044%=      5-min Rain = 0
KEA1 201643Z 21010KT 08/M04 A302 RMK A01 T00751040  RH  044%=      5-min Rain = 0
KEA1 201644Z 20011KT 08/M04 A302 RMK A01 T00781038  RH  044%=      5-min Rain = 0
KEA1 201645Z 20012KT 08/M04 A302 RMK A01 T00781039  RH  043%=      5-min Rain = 0
KEA1 201646Z 20010KT 08/M04 A302 RMK A01 T00781040  RH  043%=      5-min Rain = 0
KEA1 201647Z 22010KT 08/M04 A302 RMK A01 T00791040  RH  043%=      5-min Rain = 0
KEA1 201648Z 21010KT 08/M04 A302 RMK A01 T00801040  RH  042%=      5-min Rain = 0
KEA1 201649Z 20010KT 08/M04 A302 RMK A01 T00811042  RH  042%=      5-min Rain = 0
KEA1 201650Z 20011KT 08/M04 A302 RMK A01 T00791041  RH  042%=      5-min Rain = 0
KEA1 201651Z 20013KT 08/M04 A3019 RMK A01 T00811040  RH  042%=      5-min Rain = 0
KEA1 201652Z 20013KT 08/M04 A3019 RMK A01 T00811041  RH  042%=      5-min Rain = 0
KEA1 201653Z 21011KT 08/M04 A302 RMK A01 T00801041  RH  042%=      5-min Rain = 0
KEA1 201654Z 21011KT 08/M04 A3019 RMK A01 T00821038  RH  042%=      5-min Rain = 0
KEA1 201655Z 20011KT 08/M04 A302 RMK A01 T00831041  RH  041%=      5-min Rain = 0
KEA1 201656Z 21012KT 08/M04 A3019 RMK A01 T00841042  RH  041%=      5-min Rain = 0
KEA1 201657Z 21012KT 08/M05 A3019 RMK A01 T00831045  RH  040%=      5-min Rain = 0
KEA1 201658Z 21011KT 08/M04 A3019 RMK A01 T00841043  RH  040%=      5-min Rain = 0
KEA1 201659Z 22009KT 08/M04 A3019 RMK A01 T00841041  RH  041%=      5-min Rain = 0
KEA1 201700Z 21009KT 09/M04 A3019 RMK A01 T00881038  RH  041%=      5-min Rain = 0
KEA1 201701Z 20012KT 09/M04 A3019 RMK A01 T00901039  RH  040%=      5-min Rain = 0
KEA1 201702Z 21013KT 09/M04 A3019 RMK A01 T00891042  RH  039%=      5-min Rain = 0
KEA1 201703Z 22010KT 09/M04 A302 RMK A01 T00871043  RH  039%=      5-min Rain = 0
KEA1 201704Z 20011KT 09/M04 A3019 RMK A01 T00881041  RH  040%=      5-min Rain = 0
KEA1 201705Z 21010KT 09/M04 A3019 RMK A01 T00871042  RH  040%=      5-min Rain = 0
KEA1 201706Z 22010KT 09/M04 A302 RMK A01 T00861042  RH  040%=      5-min Rain = 0
KEA1 201707Z 21011KT 09/M04 A302 RMK A01 T00881040  RH  040%=      5-min Rain = 0
KEA1 201708Z 21011KT 09/M04 A302 RMK A01 T00901042  RH  039%=      5-min Rain = 0
KEA1 201709Z 22012KT 09/M04 A302 RMK A01 T00911043  RH  039%=      5-min Rain = 0
KEA1 201710Z 22011KT 09/M04 A302 RMK A01 T00921042  RH  038%=      5-min Rain = 0
KEA1 201711Z 21010KT 09/M04 A302 RMK A01 T00921041  RH  039%=      5-min Rain = 0
KEA1 201712Z 21014KT 09/M04 A302 RMK A01 T00931041  RH  039%=      5-min Rain = 0
KEA1 201713Z 21013KT 09/M04 A302 RMK A01 T00931043  RH  038%=      5-min Rain = 0
KEA1 201714Z 21011KT 09/M04 A302 RMK A01 T00931044  RH  038%=      5-min Rain = 0
KEA1 201715Z 20013KT 09/M04 A302 RMK A01 T00921043  RH  038%=      5-min Rain = 0
KEA1 201716Z 21010KT 09/M04 A302 RMK A01 T00941043  RH  038%=      5-min Rain = 0
KEA1 201717Z 20012KT 10/M04 A302 RMK A01 T00971044  RH  037%=      5-min Rain = 0
KEA1 201718Z 21013KT 10/M04 A3019 RMK A01 T00981044  RH  036%=      5-min Rain = 0
KEA1 201719Z 21010KT 10/M05 A302 RMK A01 T00981045  RH  036%=      5-min Rain = 0
KEA1 201720Z 21012KT 10/M04 A3019 RMK A01 T01011043  RH  036%=      5-min Rain = 0
KEA1 201721Z 20011KT 10/M05 A3019 RMK A01 T01021045  RH  035%=      5-min Rain = 0
KEA1 201722Z 21013KT 10/M05 A3019 RMK A01 T01021047  RH  035%=      5-min Rain = 0
KEA1 201723Z 22010KT 10/M05 A3019 RMK A01 T01011046  RH  035%=      5-min Rain = 0
KEA1 201724Z 22012KT 10/M04 A302 RMK A01 T01011043  RH  036%=      5-min Rain = 0
KEA1 201725Z 22012KT 10/M04 A3019 RMK A01 T01021044  RH  035%=      5-min Rain = 0
KEA1 201726Z 22009KT 10/M04 A3019 RMK A01 T01031042  RH  036%=      5-min Rain = 0
KEA1 201727Z 22011KT 10/M04 A3019 RMK A01 T01031042  RH  036%=      5-min Rain = 0
KEA1 201728Z 22010G17KT 10/M04 A3019 RMK A01 T01041037  RH  037%=      5-min Rain = 0
KEA1 201729Z 22011G16KT 11/M04 A3019 RMK A01 T01081041  RH  035%=      5-min Rain = 0
KEA1 201730Z 21014KT 11/M05 A3019 RMK A01 T01091046  RH  033%=      5-min Rain = 0
KEA1 201731Z 21013KT 11/M05 A3019 RMK A01 T01091048  RH  033%=      5-min Rain = 0
KEA1 201732Z 20014KT 11/M05 A3019 RMK A01 T01081048  RH  033%=      5-min Rain = 0
KEA1 201733Z 21014KT 11/M05 A3019 RMK A01 T01081048  RH  033%=      5-min Rain = 0
KEA1 201734Z 21014KT 11/M05 A3019 RMK A01 T01081048  RH  033%=      5-min Rain = 0
KEA1 201735Z 21012KT 11/M05 A3019 RMK A01 T01061047  RH  034%=      5-min Rain = 0
KEA1 201736Z 21013KT 11/M05 A3019 RMK A01 T01071048  RH  033%=      5-min Rain = 0
KEA1 201737Z 21013KT 11/M05 A3019 RMK A01 T01071049  RH  033%=      5-min Rain = 0
KEA1 201738Z 21014KT 11/M05 A3019 RMK A01 T01051051  RH  033%=      5-min Rain = 0
KEA1 201739Z 22014KT 10/M05 A3019 RMK A01 T01031052  RH  033%=      5-min Rain = 0
KEA1 201740Z 21012KT 10/M05 A3019 RMK A01 T01021050  RH  034%=      5-min Rain = 0
KEA1 201741Z 22011KT 10/M05 A3019 RMK A01 T01041046  RH  035%=      5-min Rain = 0
KEA1 201742Z 21012KT 11/M05 A3019 RMK A01 T01061045  RH  034%=      5-min Rain = 0
KEA1 201743Z 21012KT 11/M05 A3018 RMK A01 T01081045  RH  034%=      5-min Rain = 0
KEA1 201744Z 21012KT 11/M05 A3019 RMK A01 T01091045  RH  034%=      5-min Rain = 0
KEA1 201745Z 22011KT 11/M04 A3019 RMK A01 T01101043  RH  034%=      5-min Rain = 0
KEA1 201746Z 23010KT 11/M04 A3018 RMK A01 T01111042  RH  034%=      5-min Rain = 0
KEA1 201747Z 23013KT 11/M04 A3018 RMK A01 T01131040  RH  034%=      5-min Rain = 0
KEA1 201748Z 23012KT 11/M04 A3018 RMK A01 T01111043  RH  034%=      5-min Rain = 0
KEA1 201749Z 21013KT 11/M04 A3018 RMK A01 T01101042  RH  034%=      5-min Rain = 0
KEA1 201750Z 22013KT 11/M04 A3018 RMK A01 T01101044  RH  034%=      5-min Rain = 0
KEA1 201751Z 22012KT 11/M04 A3018 RMK A01 T01081044  RH  034%=      5-min Rain = 0
KEA1 201752Z 22010KT 11/M04 A3018 RMK A01 T01071041  RH  035%=      5-min Rain = 0
KEA1 201753Z 21013KT 11/M04 A3018 RMK A01 T01091041  RH  035%=      5-min Rain = 0
KEA1 201754Z 22010KT 11/M04 A3018 RMK A01 T01101043  RH  034%=      5-min Rain = 0
KEA1 201755Z 21014KT 11/M04 A3018 RMK A01 T01111042  RH  034%=      5-min Rain = 0
KEA1 201756Z 21015KT 11/M05 A3018 RMK A01 T01121046  RH  033%=      5-min Rain = 0
KEA1 201757Z 22013KT 11/M04 A3018 RMK A01 T01121044  RH  033%=      5-min Rain = 0
KEA1 201758Z 21011KT 12/M04 A3018 RMK A01 T01161042  RH  033%=      5-min Rain = 0
KEA1 201759Z 21015KT 12/M04 A3018 RMK A01 T01161044  RH  032%=      5-min Rain = 0
KEA1 201800Z 22011KT 12/M04 A3018 RMK A01 T01161043  RH  033%=      5-min Rain = 0
KEA1 201801Z 23015KT 12/M04 A3017 RMK A01 T01191040  RH  033%=      5-min Rain = 0
KEA1 201802Z 23013KT 12/M04 A3017 RMK A01 T01201040  RH  032%=      5-min Rain = 0
KEA1 201803Z 22013KT 12/M04 A3017 RMK A01 T01211040  RH  032%=      5-min Rain = 0
KEA1 201804Z 22015KT 12/M04 A3017 RMK A01 T01211041  RH  032%=      5-min Rain = 0
KEA1 201805Z 22013KT 12/M04 A3017 RMK A01 T01201042  RH  032%=      5-min Rain = 0
KEA1 201806Z 22017G22KT 12/M04 A3017 RMK A01 T01191043  RH  032%=      5-min Rain = 0
KEA1 201807Z 22016KT 12/M04 A3017 RMK A01 T01191040  RH  033%=      5-min Rain = 0
KEA1 201808Z 22016KT 12/M04 A3017 RMK A01 T01181039  RH  033%=      5-min Rain = 0
KEA1 201809Z 22014KT 12/M04 A3017 RMK A01 T01181038  RH  033%=      5-min Rain = 0
KEA1 201810Z 23017KT 12/M04 A3017 RMK A01 T01181037  RH  034%=      5-min Rain = 0
KEA1 201811Z 24015KT 12/M04 A3017 RMK A01 T01181044  RH  032%=      5-min Rain = 0
KEA1 201812Z 24016KT 12/M04 A3017 RMK A01 T01171044  RH  032%=      5-min Rain = 0
KEA1 201813Z 24016KT 12/M04 A3017 RMK A01 T01171042  RH  033%=      5-min Rain = 0
KEA1 201814Z 23012KT 12/M04 A3017 RMK A01 T01161039  RH  033%=      5-min Rain = 0
KEA1 201815Z 22013KT 12/M04 A3017 RMK A01 T01171036  RH  034%=      5-min Rain = 0
KEA1 201816Z 23017KT 12/M04 A3017 RMK A01 T01171041  RH  033%=      5-min Rain = 0
KEA1 201817Z 24016KT 12/M04 A3017 RMK A01 T01161039  RH  034%=      5-min Rain = 0
KEA1 201818Z 22012KT 12/M04 A3017 RMK A01 T01161039  RH  034%=      5-min Rain = 0
KEA1 201819Z 23012KT 12/M04 A3017 RMK A01 T01181036  RH  034%=      5-min Rain = 0
KEA1 201820Z 23011KT 12/M04 A3017 RMK A01 T01201037  RH  033%=      5-min Rain = 0
KEA1 201821Z 23013KT 12/M04 A3016 RMK A01 T01221035  RH  033%=      5-min Rain = 0
KEA1 201822Z 22013G18KT 12/M04 A3016 RMK A01 T01211036  RH  033%=      5-min Rain = 0
KEA1 201823Z 20014KT 12/M04 A3016 RMK A01 T01211037  RH  033%=      5-min Rain = 0
KEA1 201824Z 22013KT 12/M04 A3016 RMK A01 T01211039  RH  032%=      5-min Rain = 0
KEA1 201825Z 22015KT 12/M04 A3016 RMK A01 T01221039  RH  032%=      5-min Rain = 0
KEA1 201826Z 21011KT 12/M04 A3016 RMK A01 T01231040  RH  032%=      5-min Rain = 0
KEA1 201827Z 22011KT 12/M04 A3016 RMK A01 T01231038  RH  032%=      5-min Rain = 0
KEA1 201828Z 21014KT 13/M04 A3016 RMK A01 T01261039  RH  032%=      5-min Rain = 0
KEA1 201829Z 23015KT 13/M04 A3016 RMK A01 T01251040  RH  031%=      5-min Rain = 0
KEA1 201830Z 22016KT 12/M04 A3016 RMK A01 T01241041  RH  031%=      5-min Rain = 0
KEA1 201831Z 23015KT 12/M04 A3016 RMK A01 T01231044  RH  031%=      5-min Rain = 0
KEA1 201832Z 22014G19KT 12/M05 A3016 RMK A01 T01211046  RH  031%=      5-min Rain = 0
KEA1 201833Z 23016KT 12/M05 A3015 RMK A01 T01211045  RH  031%=      5-min Rain = 0
KEA1 201834Z 24012KT 12/M04 A3016 RMK A01 T01221038  RH  033%=      5-min Rain = 0
KEA1 201835Z 24013G18KT 13/M04 A3015 RMK A01 T01261037  RH  032%=      5-min Rain = 0
KEA1 201836Z 23010KT 13/M04 A3015 RMK A01 T01311035  RH  031%=      5-min Rain = 0
KEA1 201837Z 25012KT 14/M04 A3015 RMK A01 T01351039  RH  030%=      5-min Rain = 0
KEA1 201838Z 24013KT 14/M04 A3015 RMK A01 T01381039  RH  029%=      5-min Rain = 0
KEA1 201839Z 22013KT 14/M04 A3015 RMK A01 T01391042  RH  028%=      5-min Rain = 0
KEA1 201840Z 22016KT 14/M04 A3015 RMK A01 T01361041  RH  029%=      5-min Rain = 0
KEA1 201841Z 22015KT 13/M04 A3015 RMK A01 T01321041  RH  030%=      5-min Rain = 0
KEA1 201842Z 22016KT 13/M04 A3014 RMK A01 T01331041  RH  030%=      5-min Rain = 0
KEA1 201843Z 21014KT 13/M05 A3015 RMK A01 T01321046  RH  029%=      5-min Rain = 0
KEA1 201844Z 23013KT 13/M04 A3015 RMK A01 T01321044  RH  029%=      5-min Rain = 0
KEA1 201845Z 24013G19KT 13/M04 A3015 RMK A01 T01331041  RH  030%=      5-min Rain = 0
KEA1 201846Z 24014G19KT 13/M05 A3015 RMK A01 T01331047  RH  028%=      5-min Rain = 0
KEA1 201847Z 25017G22KT 13/M05 A3014 RMK A01 T01321048  RH  028%=      5-min Rain = 0
KEA1 201848Z 24018KT 13/M05 A3015 RMK A01 T01301050  RH  028%=      5-min Rain = 0
KEA1 201849Z 24015KT 13/M05 A3014 RMK A01 T01281050  RH  028%=      5-min Rain = 0
KEA1 201850Z 24019KT 13/M05 A3014 RMK A01 T01271052  RH  028%=      5-min Rain = 0
KEA1 201851Z 24018KT 13/M05 A3014 RMK A01 T01261052  RH  029%=      5-min Rain = 0
KEA1 201852Z 23015KT 13/M04 A3014 RMK A01 T01271043  RH  030%=      5-min Rain = 0
KEA1 201853Z 24014KT 13/M04 A3014 RMK A01 T01301037  RH  031%=      5-min Rain = 0
KEA1 201854Z 24015KT 13/M05 A3014 RMK A01 T01311046  RH  029%=      5-min Rain = 0
KEA1 201855Z 22015KT 13/M05 A3014 RMK A01 T01301046  RH  029%=      5-min Rain = 0
KEA1 201856Z 22013KT 13/M05 A3014 RMK A01 T01311045  RH  029%=      5-min Rain = 0
KEA1 201857Z 22014G19KT 13/M05 A3014 RMK A01 T01321047  RH  029%=      5-min Rain = 0
KEA1 201858Z 23013G19KT 13/M05 A3014 RMK A01 T01331046  RH  029%=      5-min Rain = 0
KEA1 201859Z 24019KT 14/M05 A3014 RMK A01 T01371046  RH  028%=      5-min Rain = 0
KEA1 201900Z 24017KT 14/M05 A3014 RMK A01 T01381050  RH  027%=      5-min Rain = 0
KEA1 201901Z 24019KT 14/M05 A3014 RMK A01 T01371050  RH  027%=      5-min Rain = 0
KEA1 201902Z 23017G22KT 14/M05 A3014 RMK A01 T01371049  RH  027%=      5-min Rain = 0
KEA1 201903Z 23016KT 14/M05 A3014 RMK A01 T01391045  RH  028%=      5-min Rain = 0
KEA1 201904Z 24017KT 14/M04 A3014 RMK A01 T01401041  RH  028%=      5-min Rain = 0
KEA1 201905Z 24014KT 14/M05 A3014 RMK A01 T01411049  RH  027%=      5-min Rain = 0
KEA1 201906Z 23013KT 14/M04 A3013 RMK A01 T01441044  RH  027%=      5-min Rain = 0
KEA1 201907Z 23016KT 15/M04 A3013 RMK A01 T01461041  RH  027%=      5-min Rain = 0
KEA1 201908Z 21016KT 14/M05 A3013 RMK A01 T01421047  RH  027%=      5-min Rain = 0
KEA1 201909Z 21016KT 14/M05 A3013 RMK A01 T01371052  RH  027%=      5-min Rain = 0
KEA1 201910Z 22016G22KT 14/M05 A3013 RMK A01 T01351050  RH  027%=      5-min Rain = 0
KEA1 201911Z 22013KT 14/M05 A3013 RMK A01 T01351050  RH  027%=      5-min Rain = 0
KEA1 201912Z 23015KT 14/M05 A3013 RMK A01 T01351047  RH  028%=      5-min Rain = 0
KEA1 201913Z 23015KT 14/M04 A3013 RMK A01 T01361044  RH  028%=      5-min Rain = 0
KEA1 201914Z 24016KT 14/M05 A3013 RMK A01 T01381048  RH  027%=      5-min Rain = 0
KEA1 201915Z 24016KT 14/M05 A3013 RMK A01 T01371049  RH  027%=      5-min Rain = 0
KEA1 201916Z 24016KT 14/M05 A3013 RMK A01 T01371050  RH  027%=      5-min Rain = 0
KEA1 201917Z 23012KT 14/M05 A3013 RMK A01 T01371045  RH  028%=      5-min Rain = 0
KEA1 201918Z 23013KT 14/M04 A3013 RMK A01 T01381042  RH  028%=      5-min Rain = 0
KEA1 201919Z 23013KT 14/M04 A3013 RMK A01 T01401043  RH  028%=      5-min Rain = 0
KEA1 201920Z 23012G18KT 14/M04 A3012 RMK A01 T01441042  RH  027%=      5-min Rain = 0
KEA1 201921Z 23014G19KT 14/M04 A3012 RMK A01 T01441042  RH  027%=      5-min Rain = 0
KEA1 201922Z 24016KT 15/M05 A3012 RMK A01 T01451045  RH  027%=      5-min Rain = 0
KEA1 201923Z 23014KT 15/M05 A3012 RMK A01 T01451048  RH  026%=      5-min Rain = 0
KEA1 201924Z 24014KT 14/M05 A3012 RMK A01 T01441046  RH  026%=      5-min Rain = 0
KEA1 201925Z 24012KT 15/M05 A3012 RMK A01 T01451047  RH  026%=      5-min Rain = 0
KEA1 201926Z 23011KT 15/M05 A3012 RMK A01 T01461048  RH  026%=      5-min Rain = 0
KEA1 201927Z 23014KT 15/M05 A3012 RMK A01 T01461045  RH  026%=      5-min Rain = 0
KEA1 201928Z 23014KT 15/M04 A3012 RMK A01 T01471042  RH  027%=      5-min Rain = 0
KEA1 201929Z 24016G21KT 15/M05 A3011 RMK A01 T01471047  RH  026%=      5-min Rain = 0
KEA1 201930Z 24018G23KT 15/M05 A3011 RMK A01 T01471047  RH  026%=      5-min Rain = 0
KEA1 201931Z 25016KT 15/M05 A3011 RMK A01 T01471047  RH  026%=      5-min Rain = 0
KEA1 201932Z 24016G22KT 15/M05 A3011 RMK A01 T01481047  RH  026%=      5-min Rain = 0
KEA1 201933Z 24016KT 15/M05 A3011 RMK A01 T01491046  RH  026%=      5-min Rain = 0
KEA1 201934Z 24015KT 15/M05 A3011 RMK A01 T01491047  RH  025%=      5-min Rain = 0
KEA1 201935Z 24012KT 15/M05 A3011 RMK A01 T01481047  RH  026%=      5-min Rain = 0
KEA1 201936Z 24016KT 15/M05 A3011 RMK A01 T01491045  RH  026%=      5-min Rain = 0
KEA1 201937Z 25014KT 15/M05 A3011 RMK A01 T01481047  RH  026%=      5-min Rain = 0
KEA1 201938Z 26015KT 15/M05 A3011 RMK A01 T01471047  RH  026%=      5-min Rain = 0
KEA1 201939Z 24016KT 15/M05 A3011 RMK A01 T01471046  RH  026%=      5-min Rain = 0
KEA1 201940Z 24014KT 15/M05 A3011 RMK A01 T01481046  RH  026%=      5-min Rain = 0
KEA1 201941Z 24015KT 15/M05 A3011 RMK A01 T01471047  RH  026%=      5-min Rain = 0
KEA1 201942Z 24015KT 15/M05 A3011 RMK A01 T01451048  RH  026%=      5-min Rain = 0
KEA1 201943Z 24016KT 14/M05 A3011 RMK A01 T01441049  RH  026%=      5-min Rain = 0
KEA1 201944Z 24017KT 15/M05 A3011 RMK A01 T01451048  RH  026%=      5-min Rain = 0
KEA1 201945Z 25015KT 15/M05 A3011 RMK A01 T01451048  RH  026%=      5-min Rain = 0
KEA1 201946Z 25014KT 15/M05 A3011 RMK A01 T01461047  RH  026%=      5-min Rain = 0
KEA1 201947Z 25011KT 15/M05 A301 RMK A01 T01471046  RH  026%=      5-min Rain = 0
KEA1 201948Z 23012KT 15/M04 A301 RMK A01 T01511043  RH  026%=      5-min Rain = 0
KEA1 201949Z 23013G18KT 15/M04 A301 RMK A01 T01541044  RH  025%=      5-min Rain = 0
KEA1 201950Z 23014KT 16/M04 A301 RMK A01 T01551043  RH  025%=      5-min Rain = 0
KEA1 201951Z 26014KT 16/M04 A301 RMK A01 T01571043  RH  025%=      5-min Rain = 0
KEA1 201952Z 25014KT 16/M05 A301 RMK A01 T01571046  RH  024%=      5-min Rain = 0
KEA1 201953Z 24014KT 15/M05 A301 RMK A01 T01531050  RH  024%=      5-min Rain = 0
KEA1 201954Z 25013KT 15/M05 A301 RMK A01 T01511050  RH  025%=      5-min Rain = 0
KEA1 201955Z 24013KT 15/M05 A301 RMK A01 T01501048  RH  025%=      5-min Rain = 0
KEA1 201956Z 24015KT 16/M04 A3009 RMK A01 T01551042  RH  025%=      5-min Rain = 0
KEA1 201957Z 23013KT 16/M04 A3009 RMK A01 T01581044  RH  025%=      5-min Rain = 0
KEA1 201958Z 25016KT 16/M05 A3009 RMK A01 T01581045  RH  024%=      5-min Rain = 0
KEA1 201959Z 26017KT 16/M05 A3009 RMK A01 T01591045  RH  024%=      5-min Rain = 0
KEA1 202000Z 26016KT 16/M05 A3009 RMK A01 T01591047  RH  024%=      5-min Rain = 0
KEA1 202001Z 24013KT 16/M05 A3009 RMK A01 T01591047  RH  024%=      5-min Rain = 0
KEA1 202002Z 25015G20KT 16/M04 A3009 RMK A01 T01601044  RH  024%=      5-min Rain = 0
KEA1 202003Z 25017KT 16/M05 A3009 RMK A01 T01591049  RH  024%=      5-min Rain = 0
KEA1 202004Z 24014KT 16/M05 A3009 RMK A01 T01561047  RH  024%=      5-min Rain = 0
KEA1 202005Z 24015KT 16/M05 A3009 RMK A01 T01561048  RH  024%=      5-min Rain = 0
KEA1 202006Z 26017KT 16/M05 A3009 RMK A01 T01561048  RH  024%=      5-min Rain = 0
KEA1 202007Z 25015KT 16/M05 A3009 RMK A01 T01561048  RH  024%=      5-min Rain = 0
KEA1 202008Z 25013KT 16/M04 A3009 RMK A01 T01601043  RH  024%=      5-min Rain = 0
KEA1 202009Z 25014KT 17/M04 A3009 RMK A01 T01651042  RH  024%=      5-min Rain = 0
KEA1 202010Z 24017KT 17/M04 A3009 RMK A01 T01671043  RH  023%=      5-min Rain = 0
KEA1 202011Z 25017KT 16/M05 A3009 RMK A01 T01641047  RH  023%=      5-min Rain = 0
KEA1 202012Z 24018KT 16/M05 A3008 RMK A01 T01621047  RH  023%=      5-min Rain = 0
KEA1 202013Z 25018KT 16/M05 A3009 RMK A01 T01621046  RH  024%=      5-min Rain = 0
KEA1 202014Z 25018KT 16/M05 A3009 RMK A01 T01611048  RH  023%=      5-min Rain = 0
KEA1 202015Z 25017KT 16/M05 A3008 RMK A01 T01601047  RH  024%=      5-min Rain = 0
KEA1 202016Z 24016KT 16/M05 A3008 RMK A01 T01631045  RH  024%=      5-min Rain = 0
KEA1 202017Z 24017KT 16/M05 A3008 RMK A01 T01641046  RH  023%=      5-min Rain = 0
KEA1 202018Z 24015KT 16/M05 A3008 RMK A01 T01631047  RH  023%=      5-min Rain = 0
KEA1 202019Z 24016KT 16/M05 A3008 RMK A01 T01621046  RH  024%=      5-min Rain = 0
KEA1 202020Z 24017KT 16/M05 A3008 RMK A01 T01621047  RH  023%=      5-min Rain = 0
KEA1 202021Z 24016KT 16/M05 A3008 RMK A01 T01591049  RH  024%=      5-min Rain = 0
KEA1 202022Z 23014KT 16/M05 A3008 RMK A01 T01581046  RH  024%=      5-min Rain = 0
KEA1 202023Z 22014G19KT 16/M04 A3008 RMK A01 T01621039  RH  025%=      5-min Rain = 0
KEA1 202024Z 22016KT 16/M04 A3008 RMK A01 T01631043  RH  024%=      5-min Rain = 0
KEA1 202025Z 22012KT 16/M04 A3008 RMK A01 T01611043  RH  024%=      5-min Rain = 0
KEA1 202026Z 22013G19KT 16/M04 A3008 RMK A01 T01631042  RH  024%=      5-min Rain = 0
KEA1 202027Z 24012KT 17/M04 A3008 RMK A01 T01651039  RH  024%=      5-min Rain = 0
KEA1 202028Z 25016KT 17/M04 A3008 RMK A01 T01711038  RH  024%=      5-min Rain = 0
KEA1 202029Z 24017KT 17/M04 A3008 RMK A01 T01721044  RH  022%=      5-min Rain = 0
KEA1 202030Z 24015KT 17/M05 A3008 RMK A01 T01661048  RH  023%=      5-min Rain = 0
KEA1 202031Z 25016KT 17/M05 A3008 RMK A01 T01651045  RH  023%=      5-min Rain = 0
KEA1 202032Z 24015KT 17/M04 A3008 RMK A01 T01691040  RH  024%=      5-min Rain = 0
KEA1 202033Z 25017KT 17/M04 A3008 RMK A01 T01731041  RH  023%=      5-min Rain = 0
KEA1 202034Z 25014KT 17/M05 A3008 RMK A01 T01681046  RH  023%=      5-min Rain = 0
KEA1 202035Z 24015KT 17/M05 A3007 RMK A01 T01671045  RH  023%=      5-min Rain = 0
KEA1 202036Z 23014KT 17/M05 A3007 RMK A01 T01651046  RH  023%=      5-min Rain = 0
KEA1 202037Z 22016KT 17/M04 A3007 RMK A01 T01651040  RH  024%=      5-min Rain = 0
KEA1 202038Z 24014G19KT 17/M04 A3007 RMK A01 T01661038  RH  024%=      5-min Rain = 0
KEA1 202039Z 24016G21KT 17/M04 A3007 RMK A01 T01671041  RH  024%=      5-min Rain = 0
KEA1 202040Z 25013KT 17/M04 A3007 RMK A01 T01661044  RH  023%=      5-min Rain = 0
KEA1 202041Z 25013KT 17/M04 A3007 RMK A01 T01661043  RH  024%=      5-min Rain = 0
KEA1 202042Z 24015KT 17/M04 A3007 RMK A01 T01681041  RH  024%=      5-min Rain = 0
KEA1 202043Z 24013KT 17/M04 A3007 RMK A01 T01691042  RH  023%=      5-min Rain = 0
KEA1 202044Z 26015KT 17/M04 A3007 RMK A01 T01681043  RH  023%=      5-min Rain = 0
KEA1 202045Z 25016KT 17/M04 A3007 RMK A01 T01701041  RH  023%=      5-min Rain = 0
KEA1 202046Z 25016KT 17/M04 A3007 RMK A01 T01731039  RH  023%=      5-min Rain = 0
KEA1 202047Z 25016KT 17/M04 A3007 RMK A01 T01731041  RH  023%=      5-min Rain = 0
KEA1 202048Z 25016G22KT 17/M04 A3007 RMK A01 T01721041  RH  023%=      5-min Rain = 0
KEA1 202049Z 25020KT 17/M04 A3007 RMK A01 T01721042  RH  023%=      5-min Rain = 0
KEA1 202050Z 24020KT 17/M04 A3007 RMK A01 T01721041  RH  023%=      5-min Rain = 0
KEA1 202051Z 24018KT 17/M04 A3007 RMK A01 T01691044  RH  023%=      5-min Rain = 0
KEA1 202052Z 22017KT 17/M04 A3006 RMK A01 T01681043  RH  023%=      5-min Rain = 0
KEA1 202053Z 25015KT 17/M04 A3007 RMK A01 T01691038  RH  024%=      5-min Rain = 0
KEA1 202054Z 25016KT 17/M04 A3007 RMK A01 T01711040  RH  023%=      5-min Rain = 0
KEA1 202055Z 25016KT 17/M04 A3006 RMK A01 T01701042  RH  023%=      5-min Rain = 0
KEA1 202056Z 25016KT 17/M04 A3006 RMK A01 T01711040  RH  023%=      5-min Rain = 0
KEA1 202057Z 24012KT 17/M04 A3006 RMK A01 T01721041  RH  023%=      5-min Rain = 0
KEA1 202058Z 23010KT 17/M04 A3006 RMK A01 T01731038  RH  023%=      5-min Rain = 0
KEA1 202059Z 24011KT 18/M04 A3006 RMK A01 T01771037  RH  023%=      5-min Rain = 0
KEA1 202100Z 23018KT 18/M04 A3006 RMK A01 T01781038  RH  023%=      5-min Rain = 0
KEA1 202101Z 23019KT 18/M04 A3006 RMK A01 T01781040  RH  022%=      5-min Rain = 0
KEA1 202102Z 24020KT 18/M04 A3006 RMK A01 T01761042  RH  022%=      5-min Rain = 0
KEA1 202103Z 23016KT 17/M04 A3006 RMK A01 T01741039  RH  023%=      5-min Rain = 0
KEA1 202104Z 23015KT 17/M03 A3006 RMK A01 T01741033  RH  024%=      5-min Rain = 0
KEA1 202105Z 25016KT 18/M04 A3006 RMK A01 T01751037  RH  023%=      5-min Rain = 0
KEA1 202106Z 25014KT 18/M04 A3006 RMK A01 T01761038  RH  023%=      5-min Rain = 0
KEA1 202107Z 24016KT 18/M04 A3006 RMK A01 T01791038  RH  023%=      5-min Rain = 0
KEA1 202108Z 24017KT 18/M04 A3006 RMK A01 T01791040  RH  022%=      5-min Rain = 0
KEA1 202109Z 24016KT 18/M04 A3006 RMK A01 T01761041  RH  022%=      5-min Rain = 0
KEA1 202110Z 24020KT 18/M04 A3005 RMK A01 T01761040  RH  023%=      5-min Rain = 0
KEA1 202111Z 25019KT 18/M04 A3005 RMK A01 T01761040  RH  023%=      5-min Rain = 0
KEA1 202112Z 25015KT 18/M04 A3006 RMK A01 T01761040  RH  023%=      5-min Rain = 0
KEA1 202113Z 25014KT 18/M04 A3006 RMK A01 T01771039  RH  023%=      5-min Rain = 0
KEA1 202114Z 25018KT 18/M04 A3006 RMK A01 T01771039  RH  023%=      5-min Rain = 0
KEA1 202115Z 24016KT 18/M04 A3005 RMK A01 T01771039  RH  023%=      5-min Rain = 0
KEA1 202116Z 24016KT 18/M04 A3005 RMK A01 T01771038  RH  023%=      5-min Rain = 0
KEA1 202117Z 24018KT 18/M04 A3005 RMK A01 T01791037  RH  023%=      5-min Rain = 0
KEA1 202118Z 25017KT 18/M04 A3005 RMK A01 T01781040  RH  022%=      5-min Rain = 0
KEA1 202119Z 25017KT 18/M04 A3005 RMK A01 T01761040  RH  023%=      5-min Rain = 0
KEA1 202120Z 24016KT 18/M04 A3005 RMK A01 T01771038  RH  023%=      5-min Rain = 0
KEA1 202121Z 25013KT 18/M04 A3005 RMK A01 T01781040  RH  022%=      5-min Rain = 0
KEA1 202122Z 24013G18KT 18/M04 A3005 RMK A01 T01801037  RH  023%=      5-min Rain = 0
KEA1 202123Z 24016KT 18/M04 A3005 RMK A01 T01831037  RH  022%=      5-min Rain = 0
KEA1 202124Z 24017KT 18/M04 A3005 RMK A01 T01821040  RH  022%=      5-min Rain = 0
KEA1 202125Z 25013KT 18/M04 A3005 RMK A01 T01801040  RH  022%=      5-min Rain = 0
KEA1 202126Z 24018KT 18/M04 A3005 RMK A01 T01831038  RH  022%=      5-min Rain = 0
KEA1 202127Z 24017KT 18/M04 A3005 RMK A01 T01821040  RH  022%=      5-min Rain = 0
KEA1 202128Z 24017KT 18/M04 A3005 RMK A01 T01811040  RH  022%=      5-min Rain = 0
KEA1 202129Z 24015KT 18/M04 A3005 RMK A01 T01821041  RH  022%=      5-min Rain = 0
KEA1 202130Z 25017G22KT 18/M04 A3005 RMK A01 T01811040  RH  022%=      5-min Rain = 0
KEA1 202131Z 24018KT 18/M04 A3005 RMK A01 T01811040  RH  022%=      5-min Rain = 0
KEA1 202132Z 24013KT 18/M04 A3005 RMK A01 T01811039  RH  022%=      5-min Rain = 0
KEA1 202133Z 24019KT 18/M04 A3005 RMK A01 T01821039  RH  022%=      5-min Rain = 0
KEA1 202134Z 24017KT 18/M04 A3005 RMK A01 T01821039  RH  022%=      5-min Rain = 0
KEA1 202135Z 24018KT 18/M04 A3005 RMK A01 T01831038  RH  022%=      5-min Rain = 0
KEA1 202136Z 25018KT 18/M04 A3005 RMK A01 T01841039  RH  022%=      5-min Rain = 0
KEA1 202137Z 25015KT 18/M04 A3005 RMK A01 T01831040  RH  022%=      5-min Rain = 0
KEA1 202138Z 24014KT 18/M04 A3005 RMK A01 T01821039  RH  022%=      5-min Rain = 0
KEA1 202139Z 25017KT 18/M04 A3005 RMK A01 T01841038  RH  022%=      5-min Rain = 0
KEA1 202140Z 24017KT 18/M04 A3005 RMK A01 T01841040  RH  021%=      5-min Rain = 0
KEA1 202141Z 23017KT 18/M04 A3005 RMK A01 T01821038  RH  022%=      5-min Rain = 0
KEA1 202142Z 24017KT 18/M04 A3005 RMK A01 T01811039  RH  022%=      5-min Rain = 0
KEA1 202143Z 24014KT 18/M04 A3005 RMK A01 T01821040  RH  022%=      5-min Rain = 0
KEA1 202144Z 23018KT 18/M04 A3005 RMK A01 T01831038  RH  022%=      5-min Rain = 0
KEA1 202145Z 23017KT 18/M04 A3005 RMK A01 T01841035  RH  022%=      5-min Rain = 0
KEA1 202146Z 23015KT 18/M03 A3005 RMK A01 T01831032  RH  023%=      5-min Rain = 0
KEA1 202147Z 24015KT 18/M03 A3005 RMK A01 T01831033  RH  023%=      5-min Rain = 0
KEA1 202148Z 25016G21KT 18/M04 A3005 RMK A01 T01841037  RH  022%=      5-min Rain = 0
KEA1 202149Z 24016KT 19/M04 A3005 RMK A01 T01851041  RH  021%=      5-min Rain = 0
KEA1 202150Z 24016KT 18/M04 A3005 RMK A01 T01841042  RH  021%=      5-min Rain = 0
KEA1 202151Z 23012KT 19/M04 A3005 RMK A01 T01851038  RH  022%=      5-min Rain = 0
KEA1 202152Z 23013G18KT 19/M04 A3005 RMK A01 T01871035  RH  022%=      5-min Rain = 0
KEA1 202153Z 25014KT 19/M04 A3005 RMK A01 T01871036  RH  022%=      5-min Rain = 0
KEA1 202154Z 24015KT 19/M04 A3005 RMK A01 T01871041  RH  021%=      5-min Rain = 0
KEA1 202155Z 23012KT 19/M04 A3005 RMK A01 T01861040  RH  021%=      5-min Rain = 0
KEA1 202156Z 24014KT 19/M04 A3005 RMK A01 T01871038  RH  021%=      5-min Rain = 0
KEA1 202157Z 24015KT 19/M04 A3005 RMK A01 T01871038  RH  021%=      5-min Rain = 0
KEA1 202158Z 25011KT 19/M04 A3005 RMK A01 T01851041  RH  021%=      5-min Rain = 0
KEA1 202159Z 23013KT 19/M04 A3005 RMK A01 T01881037  RH  021%=      5-min Rain = 0
KEA1 202200Z 24013KT 19/M04 A3005 RMK A01 T01901038  RH  021%=      5-min Rain = 0
KEA1 202201Z 23014KT 19/M04 A3005 RMK A01 T01861042  RH  021%=      5-min Rain = 0
KEA1 202202Z 24009KT 18/M04 A3005 RMK A01 T01831043  RH  021%=      5-min Rain = 0
KEA1 202203Z 22013G18KT 18/M04 A3005 RMK A01 T01831038  RH  022%=      5-min Rain = 0
KEA1 202204Z 23015KT 18/M03 A3005 RMK A01 T01841034  RH  023%=      5-min Rain = 0
KEA1 202205Z 22013KT 19/M04 A3005 RMK A01 T01861035  RH  022%=      5-min Rain = 0
KEA1 202206Z 22016KT 19/M03 A3005 RMK A01 T01871034  RH  022%=      5-min Rain = 0
KEA1 202207Z 22013KT 19/M03 A3005 RMK A01 T01861034  RH  022%=      5-min Rain = 0
KEA1 202208Z 24015KT 18/M04 A3005 RMK A01 T01841036  RH  022%=      5-min Rain = 0
KEA1 202209Z 24016KT 18/M04 A3005 RMK A01 T01821043  RH  021%=      5-min Rain = 0
KEA1 202210Z 24015KT 18/M04 A3005 RMK A01 T01791044  RH  022%=      5-min Rain = 0
KEA1 202211Z 22012KT 18/M04 A3005 RMK A01 T01781040  RH  022%=      5-min Rain = 0
KEA1 202212Z 23010KT 18/M03 A3005 RMK A01 T01801034  RH  023%=      5-min Rain = 0
KEA1 202213Z 22013KT 18/M03 A3005 RMK A01 T01821029  RH  024%=      5-min Rain = 0
KEA1 202214Z 22017KT 18/M03 A3005 RMK A01 T01831034  RH  023%=      5-min Rain = 0
KEA1 202215Z 23016KT 18/M04 A3005 RMK A01 T01821036  RH  022%=      5-min Rain = 0
KEA1 202216Z 24014KT 18/M03 A3005 RMK A01 T01821034  RH  023%=      5-min Rain = 0
KEA1 202217Z 24015KT 18/M04 A3005 RMK A01 T01821041  RH  022%=      5-min Rain = 0
KEA1 202218Z 23014KT 18/M04 A3005 RMK A01 T01811043  RH  021%=      5-min Rain = 0
KEA1 202219Z 23011KT 18/M04 A3005 RMK A01 T01811041  RH  022%=      5-min Rain = 0
KEA1 202220Z 24010KT 18/M04 A3005 RMK A01 T01821038  RH  022%=      5-min Rain = 0
KEA1 202221Z 24010KT 18/M04 A3005 RMK A01 T01831036  RH  022%=      5-min Rain = 0
KEA1 202222Z 24014KT 18/M04 A3005 RMK A01 T01831042  RH  021%=      5-min Rain = 0
KEA1 202223Z 24012KT 18/M04 A3005 RMK A01 T01821042  RH  021%=      5-min Rain = 0
KEA1 202224Z 22011KT 18/M04 A3005 RMK A01 T01821038  RH  022%=      5-min Rain = 0
KEA1 202225Z 22013KT 18/M04 A3005 RMK A01 T01831037  RH  022%=      5-min Rain = 0
KEA1 202226Z 23012KT 18/M04 A3005 RMK A01 T01821036  RH  022%=      5-min Rain = 0
KEA1 202227Z 23012KT 18/M04 A3005 RMK A01 T01811035  RH  023%=      5-min Rain = 0
KEA1 202228Z 22011KT 18/M03 A3005 RMK A01 T01811034  RH  023%=      5-min Rain = 0
KEA1 202229Z 22009KT 18/M03 A3005 RMK A01 T01811033  RH  023%=      5-min Rain = 0
KEA1 202230Z 22009KT 18/M03 A3005 RMK A01 T01811033  RH  023%=      5-min Rain = 0
KEA1 202231Z 21011KT 18/M04 A3005 RMK A01 T01831035  RH  022%=      5-min Rain = 0
KEA1 202232Z 23012KT 18/M04 A3005 RMK A01 T01841037  RH  022%=      5-min Rain = 0
KEA1 202233Z 22011KT 18/M04 A3005 RMK A01 T01841038  RH  022%=      5-min Rain = 0
KEA1 202234Z 22011KT 18/M04 A3005 RMK A01 T01841037  RH  022%=      5-min Rain = 0
KEA1 202235Z 22012KT 18/M04 A3005 RMK A01 T01831037  RH  022%=      5-min Rain = 0
KEA1 202236Z 23010KT 18/M04 A3005 RMK A01 T01831036  RH  022%=      5-min Rain = 0
KEA1 202237Z 24009KT 18/M03 A3005 RMK A01 T01821034  RH  023%=      5-min Rain = 0
KEA1 202238Z 23007KT 18/M03 A3005 RMK A01 T01821033  RH  023%=      5-min Rain = 0
KEA1 202239Z 23009KT 18/M03 A3005 RMK A01 T01821033  RH  023%=      5-min Rain = 0
KEA1 202240Z 23010KT 18/M04 A3005 RMK A01 T01831037  RH  022%=      5-min Rain = 0
KEA1 202241Z 23010KT 18/M04 A3005 RMK A01 T01831037  RH  022%=      5-min Rain = 0
KEA1 202242Z 21008KT 18/M04 A3005 RMK A01 T01841035  RH  022%=      5-min Rain = 0
KEA1 202243Z 21010KT 19/M04 A3004 RMK A01 T01851038  RH  022%=      5-min Rain = 0
KEA1 202244Z 21009KT 19/M04 A3004 RMK A01 T01851038  RH  022%=      5-min Rain = 0
KEA1 202245Z 23010KT 19/M04 A3004 RMK A01 T01861038  RH  022%=      5-min Rain = 0
KEA1 202246Z 21009KT 19/M04 A3004 RMK A01 T01861036  RH  022%=      5-min Rain = 0
KEA1 202247Z 23010KT 19/M03 A3004 RMK A01 T01861031  RH  023%=      5-min Rain = 0
KEA1 202248Z 22010KT 19/M03 A3004 RMK A01 T01861032  RH  023%=      5-min Rain = 0
KEA1 202249Z 22009KT 19/M03 A3004 RMK A01 T01851033  RH  023%=      5-min Rain = 0
KEA1 202250Z 22006KT 18/M03 A3004 RMK A01 T01841030  RH  023%=      5-min Rain = 0
KEA1 202251Z 20007G12KT 18/M03 A3004 RMK A01 T01841028  RH  023%=      5-min Rain = 0
KEA1 202252Z 20010KT 18/M04 A3004 RMK A01 T01841038  RH  022%=      5-min Rain = 0
KEA1 202253Z 21011KT 18/M04 A3004 RMK A01 T01831042  RH  021%=      5-min Rain = 0
KEA1 202254Z 21007KT 18/M04 A3004 RMK A01 T01811043  RH  021%=      5-min Rain = 0
KEA1 202255Z 21007KT 18/M04 A3004 RMK A01 T01811041  RH  022%=      5-min Rain = 0
KEA1 202256Z 21007KT 18/M04 A3004 RMK A01 T01811040  RH  022%=      5-min Rain = 0
KEA1 202257Z 22009KT 18/M04 A3004 RMK A01 T01811040  RH  022%=      5-min Rain = 0
KEA1 202258Z 21009KT 18/M04 A3004 RMK A01 T01821037  RH  022%=      5-min Rain = 0
KEA1 202259Z 21008KT 18/M04 A3004 RMK A01 T01831040  RH  022%=      5-min Rain = 0
KEA1 202300Z 21007KT 18/M04 A3004 RMK A01 T01841041  RH  021%=      5-min Rain = 0
KEA1 202301Z 22008KT 19/M04 A3004 RMK A01 T01851040  RH  021%=      5-min Rain = 0
KEA1 202302Z 21008KT 19/M04 A3004 RMK A01 T01851040  RH  021%=      5-min Rain = 0
KEA1 202303Z 22009KT 18/M04 A3004 RMK A01 T01841040  RH  021%=      5-min Rain = 0
KEA1 202304Z 20008KT 18/M04 A3004 RMK A01 T01831042  RH  021%=      5-min Rain = 0
KEA1 202305Z 21009KT 18/M04 A3004 RMK A01 T01821043  RH  021%=      5-min Rain = 0
KEA1 202306Z 21009KT 18/M04 A3004 RMK A01 T01811043  RH  021%=      5-min Rain = 0
KEA1 202307Z 21007KT 18/M04 A3004 RMK A01 T01801043  RH  022%=      5-min Rain = 0
KEA1 202308Z 21008KT 18/M04 A3003 RMK A01 T01791042  RH  022%=      5-min Rain = 0
KEA1 202309Z 22008KT 18/M04 A3003 RMK A01 T01781042  RH  022%=      5-min Rain = 0
KEA1 202310Z 21007KT 18/M04 A3003 RMK A01 T01781039  RH  023%=      5-min Rain = 0
KEA1 202311Z 21008KT 18/M04 A3003 RMK A01 T01781039  RH  022%=      5-min Rain = 0
KEA1 202312Z 21010KT 18/M04 A3003 RMK A01 T01771040  RH  022%=      5-min Rain = 0
KEA1 202313Z 20009KT 18/M04 A3003 RMK A01 T01771042  RH  022%=      5-min Rain = 0
KEA1 202314Z 21010KT 18/M04 A3003 RMK A01 T01761043  RH  022%=      5-min Rain = 0
KEA1 202315Z 21008KT 18/M04 A3003 RMK A01 T01761044  RH  022%=      5-min Rain = 0
KEA1 202316Z 21007KT 18/M04 A3003 RMK A01 T01761044  RH  022%=      5-min Rain = 0
KEA1 202317Z 20008KT 18/M04 A3003 RMK A01 T01751044  RH  022%=      5-min Rain = 0
KEA1 202318Z 21008KT 17/M04 A3003 RMK A01 T01741043  RH  022%=      5-min Rain = 0
KEA1 202319Z 21007KT 17/M04 A3003 RMK A01 T01741043  RH  022%=      5-min Rain = 0
KEA1 202320Z 22008KT 17/M04 A3003 RMK A01 T01741041  RH  023%=      5-min Rain = 0
KEA1 202321Z 21007KT 18/M04 A3003 RMK A01 T01751036  RH  023%=      5-min Rain = 0
KEA1 202322Z 21008KT 18/M04 A3003 RMK A01 T01761037  RH  023%=      5-min Rain = 0
KEA1 202323Z 21008KT 18/M04 A3003 RMK A01 T01771040  RH  022%=      5-min Rain = 0
KEA1 202324Z 21008KT 18/M04 A3003 RMK A01 T01791040  RH  022%=      5-min Rain = 0
KEA1 202325Z 21008KT 18/M04 A3003 RMK A01 T01801040  RH  022%=      5-min Rain = 0
KEA1 202326Z 21009KT 18/M04 A3003 RMK A01 T01801043  RH  022%=      5-min Rain = 0
KEA1 202327Z 21008KT 18/M04 A3003 RMK A01 T01791043  RH  022%=      5-min Rain = 0
KEA1 202328Z 21008KT 18/M04 A3003 RMK A01 T01791042  RH  022%=      5-min Rain = 0
KEA1 202329Z 21009KT 18/M04 A3003 RMK A01 T01771043  RH  022%=      5-min Rain = 0
KEA1 202330Z 21008KT 18/M04 A3003 RMK A01 T01761043  RH  022%=      5-min Rain = 0
KEA1 202331Z 21009KT 18/M04 A3003 RMK A01 T01761043  RH  022%=      5-min Rain = 0
KEA1 202332Z 20007KT 18/M04 A3003 RMK A01 T01761043  RH  022%=      5-min Rain = 0
KEA1 202333Z 20007KT 18/M04 A3003 RMK A01 T01761043  RH  022%=      5-min Rain = 0
KEA1 202334Z 20007KT 17/M04 A3003 RMK A01 T01741042  RH  023%=      5-min Rain = 0
KEA1 202335Z 21008KT 17/M04 A3003 RMK A01 T01731042  RH  023%=      5-min Rain = 0
KEA1 202336Z 20007KT 17/M04 A3003 RMK A01 T01711042  RH  023%=      5-min Rain = 0
KEA1 202337Z 20007KT 17/M04 A3003 RMK A01 T01701043  RH  023%=      5-min Rain = 0
KEA1 202338Z 20008KT 17/M04 A3003 RMK A01 T01691043  RH  023%=      5-min Rain = 0
KEA1 202339Z 20007KT 17/M04 A3003 RMK A01 T01681043  RH  023%=      5-min Rain = 0
KEA1 202340Z 20007KT 17/M04 A3003 RMK A01 T01651043  RH  024%=      5-min Rain = 0
KEA1 202341Z 20007KT 16/M04 A3003 RMK A01 T01641043  RH  024%=      5-min Rain = 0
KEA1 202342Z 20007KT 16/M04 A3003 RMK A01 T01631043  RH  024%=      5-min Rain = 0
KEA1 202343Z 20008KT 16/M04 A3003 RMK A01 T01621043  RH  024%=      5-min Rain = 0
KEA1 202344Z 20007KT 16/M04 A3003 RMK A01 T01611043  RH  024%=      5-min Rain = 0
KEA1 202345Z 20007KT 16/M04 A3003 RMK A01 T01601043  RH  025%=      5-min Rain = 0
KEA1 202346Z 20008KT 16/M04 A3003 RMK A01 T01591043  RH  025%=      5-min Rain = 0
KEA1 202347Z 20008KT 16/M04 A3003 RMK A01 T01571043  RH  025%=      5-min Rain = 0
KEA1 202348Z 20008KT 16/M04 A3003 RMK A01 T01551044  RH  025%=      5-min Rain = 0
KEA1 202349Z 21008KT 15/M04 A3003 RMK A01 T01541044  RH  025%=      5-min Rain = 0
KEA1 202350Z 21009KT 15/M04 A3003 RMK A01 T01531044  RH  025%=      5-min Rain = 0
KEA1 202351Z 21008KT 15/M05 A3003 RMK A01 T01531045  RH  025%=      5-min Rain = 0
KEA1 202352Z 20008KT 15/M05 A3003 RMK A01 T01521045  RH  025%=      5-min Rain = 0
KEA1 202353Z 21009KT 15/M05 A3003 RMK A01 T01511045  RH  025%=      5-min Rain = 0
KEA1 202354Z 20009KT 15/M05 A3003 RMK A01 T01511046  RH  025%=      5-min Rain = 0
KEA1 202355Z 21009KT 15/M05 A3003 RMK A01 T01511046  RH  025%=      5-min Rain = 0
KEA1 202356Z 20009KT 15/M05 A3003 RMK A01 T01511047  RH  025%=      5-min Rain = 0
KEA1 202357Z 20008KT 15/M05 A3003 RMK A01 T01501047  RH  025%=      5-min Rain = 0
KEA1 202358Z 20009KT 15/M05 A3003 RMK A01 T01481048  RH  025%=      5-min Rain = 0
KEA1 202359Z 20008KT 15/M05 A3003 RMK A01 T01461048  RH  026%=      5-min Rain = 0
KEA1 210000Z 20008KT 14/M05 A3003 RMK A01 T01441048  RH  026%=      5-min Rain = 0
KEA1 210001Z 20008KT 14/M05 A3003 RMK A01 T01421048  RH  026%=      5-min Rain = 0
KEA1 210002Z 20008KT 14/M05 A3003 RMK A01 T01401048  RH  027%=      5-min Rain = 0
KEA1 210003Z 20008KT 14/M05 A3003 RMK A01 T01381049  RH  027%=      5-min Rain = 0
KEA1 210004Z 20008KT 14/M05 A3003 RMK A01 T01371049  RH  027%=      5-min Rain = 0
KEA1 210005Z 20008KT 14/M05 A3003 RMK A01 T01361049  RH  027%=      5-min Rain = 0
KEA1 210006Z 20007KT 14/M05 A3003 RMK A01 T01351049  RH  028%=      5-min Rain = 0
KEA1 210007Z 20008KT 13/M05 A3003 RMK A01 T01341049  RH  028%=      5-min Rain = 0
KEA1 210008Z 20007KT 13/M05 A3003 RMK A01 T01331049  RH  028%=      5-min Rain = 0
KEA1 210009Z 20007KT 13/M05 A3003 RMK A01 T01331049  RH  028%=      5-min Rain = 0
KEA1 210010Z 19007KT 13/M05 A3003 RMK A01 T01321049  RH  028%=      5-min Rain = 0
KEA1 210011Z 19007KT 13/M05 A3003 RMK A01 T01321050  RH  028%=      5-min Rain = 0
KEA1 210012Z 19006KT 13/M05 A3003 RMK A01 T01311049  RH  028%=      5-min Rain = 0
KEA1 210013Z 19007KT 13/M05 A3003 RMK A01 T01301050  RH  028%=      5-min Rain = 0
KEA1 210014Z 19007KT 13/M05 A3003 RMK A01 T01291051  RH  028%=      5-min Rain = 0
KEA1 210015Z 19007KT 13/M05 A3003 RMK A01 T01281050  RH  028%=      5-min Rain = 0
KEA1 210016Z 19006KT 13/M05 A3003 RMK A01 T01281051  RH  028%=      5-min Rain = 0
KEA1 210017Z 19006KT 13/M05 A3003 RMK A01 T01261052  RH  029%=      5-min Rain = 0
KEA1 210018Z 19006KT 12/M05 A3003 RMK A01 T01231052  RH  029%=      5-min Rain = 0
KEA1 210019Z 19006KT 12/M05 A3003 RMK A01 T01221052  RH  029%=      5-min Rain = 0
KEA1 210020Z 19007KT 12/M05 A3003 RMK A01 T01221052  RH  029%=      5-min Rain = 0
KEA1 210021Z 19007KT 12/M05 A3003 RMK A01 T01201053  RH  029%=      5-min Rain = 0
KEA1 210022Z 19007KT 12/M05 A3003 RMK A01 T01161054  RH  030%=      5-min Rain = 0
KEA1 210023Z 19008KT 11/M06 A3003 RMK A01 T01111056  RH  030%=      5-min Rain = 0
KEA1 210024Z 19008KT 11/M06 A3003 RMK A01 T01071057  RH  031%=      5-min Rain = 0
KEA1 210025Z 19008KT 10/M06 A3003 RMK A01 T01041056  RH  032%=      5-min Rain = 0
KEA1 210026Z 19008KT 10/M06 A3003 RMK A01 T01021056  RH  032%=      5-min Rain = 0
KEA1 210027Z 19009KT 10/M06 A3003 RMK A01 T01011055  RH  033%=      5-min Rain = 0
KEA1 210028Z 19009KT 10/M06 A3003 RMK A01 T01011055  RH  033%=      5-min Rain = 0
KEA1 210029Z 19010KT 10/M05 A3003 RMK A01 T01011054  RH  033%=      5-min Rain = 0
KEA1 210030Z 19010KT 10/M05 A3003 RMK A01 T00991054  RH  034%=      5-min Rain = 0
KEA1 210031Z 19010KT 10/M05 A3003 RMK A01 T00991053  RH  034%=      5-min Rain = 0
KEA1 210032Z 19010KT 10/M05 A3003 RMK A01 T00991053  RH  034%=      5-min Rain = 0
KEA1 210033Z 19010KT 10/M05 A3003 RMK A01 T00981053  RH  034%=      5-min Rain = 0
KEA1 210034Z 19010KT 10/M05 A3003 RMK A01 T00971053  RH  034%=      5-min Rain = 0
KEA1 210035Z 19010KT 10/M05 A3003 RMK A01 T00951054  RH  035%=      5-min Rain = 0
KEA1 210036Z 19010KT 09/M05 A3003 RMK A01 T00931054  RH  035%=      5-min Rain = 0
KEA1 210037Z 19010KT 09/M05 A3003 RMK A01 T00911054  RH  036%=      5-min Rain = 0
KEA1 210038Z 19010KT 09/M05 A3003 RMK A01 T00891054  RH  036%=      5-min Rain = 0
KEA1 210039Z 19009KT 09/M05 A3003 RMK A01 T00881054  RH  036%=      5-min Rain = 0
KEA1 210040Z 19010KT 09/M05 A3003 RMK A01 T00871054  RH  037%=      5-min Rain = 0
KEA1 210041Z 19009KT 09/M05 A3003 RMK A01 T00871053  RH  037%=      5-min Rain = 0
KEA1 210042Z 19009KT 09/M05 A3003 RMK A01 T00881053  RH  037%=      5-min Rain = 0
KEA1 210043Z 19009KT 09/M05 A3003 RMK A01 T00871053  RH  037%=      5-min Rain = 0
KEA1 210044Z 19009KT 09/M05 A3003 RMK A01 T00881053  RH  036%=      5-min Rain = 0
KEA1 210045Z 19009KT 09/M05 A3003 RMK A01 T00881054  RH  036%=      5-min Rain = 0
KEA1 210046Z 19009KT 09/M05 A3003 RMK A01 T00871054  RH  036%=      5-min Rain = 0
KEA1 210047Z 19009KT 09/M06 A3003 RMK A01 T00861055  RH  037%=      5-min Rain = 0
KEA1 210048Z 19009KT 08/M06 A3003 RMK A01 T00841055  RH  037%=      5-min Rain = 0
KEA1 210049Z 19009KT 08/M06 A3003 RMK A01 T00831056  RH  037%=      5-min Rain = 0
KEA1 210050Z 19009KT 08/M06 A3003 RMK A01 T00811056  RH  037%=      5-min Rain = 0
KEA1 210051Z 19009KT 08/M06 A3003 RMK A01 T00801056  RH  038%=      5-min Rain = 0
KEA1 210052Z 19009KT 08/M06 A3003 RMK A01 T00791056  RH  038%=      5-min Rain = 0
KEA1 210053Z 19009KT 08/M06 A3002 RMK A01 T00781056  RH  038%=      5-min Rain = 0
KEA1 210054Z 19009KT 08/M06 A3003 RMK A01 T00781056  RH  038%=      5-min Rain = 0
KEA1 210055Z 19008KT 08/M06 A3003 RMK A01 T00781056  RH  038%=      5-min Rain = 0
KEA1 210056Z 19008KT 08/M06 A3003 RMK A01 T00781056  RH  038%=      5-min Rain = 0
KEA1 210057Z 19008KT 08/M06 A3003 RMK A01 T00781056  RH  038%=      5-min Rain = 0
KEA1 210058Z 18008KT 08/M06 A3002 RMK A01 T00781056  RH  038%=      5-min Rain = 0
KEA1 210059Z 18009KT 08/M05 A3002 RMK A01 T00791054  RH  038%=      5-min Rain = 0
KEA1 210100Z 18009KT 08/M06 A3002 RMK A01 T00811055  RH  038%=      5-min Rain = 0
KEA1 210101Z 18008KT 08/M06 A3002 RMK A01 T00811055  RH  038%=      5-min Rain = 0
KEA1 210102Z 18009KT 08/M06 A3002 RMK A01 T00801056  RH  038%=      5-min Rain = 0
KEA1 210103Z 18009KT 08/M06 A3002 RMK A01 T00791057  RH  038%=      5-min Rain = 0
KEA1 210104Z 18009KT 08/M06 A3002 RMK A01 T00771058  RH  038%=      5-min Rain = 0
KEA1 210105Z 18009KT 08/M06 A3002 RMK A01 T00751058  RH  038%=      5-min Rain = 0
KEA1 210106Z 18010KT 07/M06 A3002 RMK A01 T00741057  RH  039%=      5-min Rain = 0
KEA1 210107Z 18010KT 07/M06 A3002 RMK A01 T00731057  RH  039%=      5-min Rain = 0
KEA1 210108Z 19009KT 07/M06 A3002 RMK A01 T00721058  RH  039%=      5-min Rain = 0
KEA1 210109Z 19009KT 07/M06 A3002 RMK A01 T00711058  RH  039%=      5-min Rain = 0
KEA1 210110Z 19009KT 07/M06 A3002 RMK A01 T00711058  RH  039%=      5-min Rain = 0
KEA1 210111Z 19009KT 07/M06 A3002 RMK A01 T00711058  RH  039%=      5-min Rain = 0
KEA1 210112Z 19009KT 07/M06 A3002 RMK A01 T00711058  RH  039%=      5-min Rain = 0
KEA1 210113Z 19010KT 07/M06 A3002 RMK A01 T00701059  RH  039%=      5-min Rain = 0
KEA1 210114Z 19010KT 07/M06 A3002 RMK A01 T00691059  RH  040%=      5-min Rain = 0
KEA1 210115Z 19010KT 07/M06 A3002 RMK A01 T00691058  RH  040%=      5-min Rain = 0
KEA1 210116Z 19010KT 07/M06 A3002 RMK A01 T00691058  RH  040%=      5-min Rain = 0
KEA1 210117Z 19011KT 07/M06 A3002 RMK A01 T00681058  RH  040%=      5-min Rain = 0
KEA1 210118Z 19011KT 07/M06 A3002 RMK A01 T00671057  RH  041%=      5-min Rain = 0
KEA1 210119Z 19011KT 07/M06 A3002 RMK A01 T00671057  RH  041%=      5-min Rain = 0
KEA1 210120Z 19011KT 07/M06 A3002 RMK A01 T00661056  RH  041%=      5-min Rain = 0
KEA1 210121Z 19011KT 07/M06 A3002 RMK A01 T00661056  RH  041%=      5-min Rain = 0
KEA1 210122Z 19010KT 07/M06 A3002 RMK A01 T00661056  RH  041%=      5-min Rain = 0
KEA1 210123Z 19010KT 07/M06 A3002 RMK A01 T00661055  RH  041%=      5-min Rain = 0
KEA1 210124Z 19010KT 07/M06 A3002 RMK A01 T00661055  RH  042%=      5-min Rain = 0
KEA1 210125Z 19010KT 07/M06 A3002 RMK A01 T00661055  RH  042%=      5-min Rain = 0
KEA1 210126Z 19010KT 07/M06 A3002 RMK A01 T00661055  RH  042%=      5-min Rain = 0
KEA1 210127Z 19010KT 07/M05 A3002 RMK A01 T00681054  RH  042%=      5-min Rain = 0
KEA1 210128Z 19010KT 07/M05 A3002 RMK A01 T00701053  RH  041%=      5-min Rain = 0
KEA1 210129Z 19009KT 07/M05 A3002 RMK A01 T00711053  RH  041%=      5-min Rain = 0
KEA1 210130Z 19009KT 07/M05 A3002 RMK A01 T00711053  RH  041%=      5-min Rain = 0
KEA1 210131Z 19009KT 07/M05 A3002 RMK A01 T00711053  RH  041%=      5-min Rain = 0
KEA1 210132Z 19009KT 07/M05 A3002 RMK A01 T00711053  RH  041%=      5-min Rain = 0
KEA1 210133Z 19010KT 07/M05 A3002 RMK A01 T00711053  RH  041%=      5-min Rain = 0
KEA1 210134Z 19010KT 07/M05 A3001 RMK A01 T00711052  RH  041%=      5-min Rain = 0
KEA1 210135Z 19010KT 07/M05 A3001 RMK A01 T00711052  RH  041%=      5-min Rain = 0
KEA1 210136Z 19010KT 07/M05 A3001 RMK A01 T00731052  RH  041%=      5-min Rain = 0
KEA1 210137Z 19010KT 07/M05 A3001 RMK A01 T00731051  RH  041%=      5-min Rain = 0
KEA1 210138Z 19010KT 08/M05 A3001 RMK A01 T00751051  RH  040%=      5-min Rain = 0
KEA1 210139Z 19010KT 08/M05 A3001 RMK A01 T00751051  RH  040%=      5-min Rain = 0
KEA1 210140Z 19010KT 08/M05 A3001 RMK A01 T00751051  RH  040%=      5-min Rain = 0
KEA1 210141Z 19010KT 08/M05 A3001 RMK A01 T00751051  RH  040%=      5-min Rain = 0
KEA1 210142Z 19010KT 08/M05 A3001 RMK A01 T00751051  RH  040%=      5-min Rain = 0
KEA1 210143Z 19010KT 08/M05 A3001 RMK A01 T00751051  RH  040%=      5-min Rain = 0
KEA1 210144Z 19011KT 08/M05 A3001 RMK A01 T00751050  RH  041%=      5-min Rain = 0
KEA1 210145Z 19010KT 08/M05 A3001 RMK A01 T00751050  RH  041%=      5-min Rain = 0
KEA1 210146Z 19010KT 08/M05 A3001 RMK A01 T00751050  RH  041%=      5-min Rain = 0
KEA1 210147Z 19010KT 08/M05 A3001 RMK A01 T00751050  RH  041%=      5-min Rain = 0
KEA1 210148Z 19010KT 08/M05 A3001 RMK A01 T00751050  RH  041%=      5-min Rain = 0
KEA1 210149Z 19010KT 08/M05 A3001 RMK A01 T00761050  RH  041%=      5-min Rain = 0
KEA1 210150Z 19009KT 08/M05 A3001 RMK A01 T00761049  RH  041%=      5-min Rain = 0
KEA1 210151Z 19009KT 08/M05 A3001 RMK A01 T00761049  RH  040%=      5-min Rain = 0
KEA1 210152Z 19009KT 08/M05 A3001 RMK A01 T00771049  RH  040%=      5-min Rain = 0
KEA1 210153Z 19010KT 08/M05 A3001 RMK A01 T00771049  RH  040%=      5-min Rain = 0
KEA1 210154Z 19009KT 08/M05 A3001 RMK A01 T00781050  RH  040%=      5-min Rain = 0
KEA1 210155Z 19009KT 08/M05 A3001 RMK A01 T00781050  RH  040%=      5-min Rain = 0
KEA1 210156Z 19009KT 08/M05 A3001 RMK A01 T00781049  RH  040%=      5-min Rain = 0
KEA1 210157Z 19009KT 08/M05 A3001 RMK A01 T00771050  RH  040%=      5-min Rain = 0
KEA1 210158Z 19009KT 08/M05 A3001 RMK A01 T00761051  RH  040%=      5-min Rain = 0
KEA1 210159Z 19009KT 08/M05 A3001 RMK A01 T00771051  RH  040%=      5-min Rain = 0
KEA1 210200Z 19010KT 08/M05 A3001 RMK A01 T00771051  RH  040%=      5-min Rain = 0
KEA1 210201Z 19010KT 08/M05 A3001 RMK A01 T00771051  RH  040%=      5-min Rain = 0
KEA1 210202Z 19010KT 08/M05 A3001 RMK A01 T00771051  RH  040%=      5-min Rain = 0
KEA1 210203Z 19010KT 08/M05 A3001 RMK A01 T00771051  RH  040%=      5-min Rain = 0
KEA1 210204Z 18010KT 08/M05 A3001 RMK A01 T00761051  RH  040%=      5-min Rain = 0
KEA1 210205Z 18010KT 08/M05 A3001 RMK A01 T00761051  RH  040%=      5-min Rain = 0
KEA1 210206Z 19009KT 08/M05 A3001 RMK A01 T00751051  RH  040%=      5-min Rain = 0
KEA1 210207Z 19009KT 07/M05 A3001 RMK A01 T00741051  RH  040%=      5-min Rain = 0
KEA1 210208Z 19009KT 07/M05 A3001 RMK A01 T00741051  RH  041%=      5-min Rain = 0
KEA1 210209Z 19009KT 07/M05 A3001 RMK A01 T00741051  RH  041%=      5-min Rain = 0
KEA1 210210Z 18010KT 07/M05 A3001 RMK A01 T00731051  RH  041%=      5-min Rain = 0
KEA1 210211Z 18009KT 07/M05 A3001 RMK A01 T00721051  RH  041%=      5-min Rain = 0
KEA1 210212Z 18009KT 07/M05 A3001 RMK A01 T00711051  RH  042%=      5-min Rain = 0
KEA1 210213Z 19010KT 07/M05 A3001 RMK A01 T00701051  RH  042%=      5-min Rain = 0
KEA1 210214Z 18011KT 07/M05 A3001 RMK A01 T00701051  RH  042%=      5-min Rain = 0
KEA1 210215Z 18010KT 07/M05 A3001 RMK A01 T00721050  RH  042%=      5-min Rain = 0
KEA1 210216Z 18009KT 07/M05 A3001 RMK A01 T00721050  RH  042%=      5-min Rain = 0
KEA1 210217Z 19009KT 07/M05 A3001 RMK A01 T00711050  RH  042%=      5-min Rain = 0
KEA1 210218Z 19009KT 07/M05 A3001 RMK A01 T00701050  RH  042%=      5-min Rain = 0
KEA1 210219Z 19009KT 07/M05 A3001 RMK A01 T00691050  RH  042%=      5-min Rain = 0
KEA1 210220Z 19009KT 07/M05 A3001 RMK A01 T00691049  RH  043%=      5-min Rain = 0
KEA1 210221Z 19009KT 07/M05 A3001 RMK A01 T00691050  RH  043%=      5-min Rain = 0
KEA1 210222Z 19009KT 07/M05 A3001 RMK A01 T00691049  RH  043%=      5-min Rain = 0
KEA1 210223Z 19009KT 07/M05 A3001 RMK A01 T00691049  RH  043%=      5-min Rain = 0
KEA1 210224Z 19009KT 07/M05 A3001 RMK A01 T00681049  RH  043%=      5-min Rain = 0
KEA1 210225Z 20009KT 07/M05 A3001 RMK A01 T00681049  RH  043%=      5-min Rain = 0
KEA1 210226Z 19010KT 07/M05 A3001 RMK A01 T00681049  RH  043%=      5-min Rain = 0
KEA1 210227Z 19010KT 07/M05 A3001 RMK A01 T00691049  RH  043%=      5-min Rain = 0
KEA1 210228Z 19011KT 07/M05 A3001 RMK A01 T00691049  RH  043%=      5-min Rain = 0
KEA1 210229Z 19010KT 07/M05 A3001 RMK A01 T00701049  RH  043%=      5-min Rain = 0
KEA1 210230Z 19010KT 07/M05 A3001 RMK A01 T00721048  RH  042%=      5-min Rain = 0
KEA1 210231Z 19010KT 07/M05 A3001 RMK A01 T00741048  RH  042%=      5-min Rain = 0
KEA1 210232Z 19010KT 08/M05 A30 RMK A01 T00761047  RH  041%=      5-min Rain = 0
KEA1 210233Z 19010KT 08/M05 A30 RMK A01 T00781047  RH  041%=      5-min Rain = 0
KEA1 210234Z 19010KT 08/M05 A30 RMK A01 T00791047  RH  040%=      5-min Rain = 0
KEA1 210235Z 19011KT 08/M05 A30 RMK A01 T00811047  RH  040%=      5-min Rain = 0
KEA1 210236Z 19010KT 08/M05 A30 RMK A01 T00831047  RH  039%=      5-min Rain = 0
KEA1 210237Z 19010KT 08/M05 A30 RMK A01 T00841047  RH  039%=      5-min Rain = 0
KEA1 210238Z 19010KT 09/M05 A30 RMK A01 T00851048  RH  039%=      5-min Rain = 0
KEA1 210239Z 19010KT 09/M05 A30 RMK A01 T00861048  RH  038%=      5-min Rain = 0
KEA1 210240Z 19010KT 09/M05 A30 RMK A01 T00881048  RH  038%=      5-min Rain = 0
KEA1 210241Z 20011KT 09/M05 A30 RMK A01 T00891048  RH  037%=      5-min Rain = 0
KEA1 210242Z 20011KT 09/M05 A30 RMK A01 T00901048  RH  037%=      5-min Rain = 0
KEA1 210243Z 20011KT 09/M05 A30 RMK A01 T00911048  RH  037%=      5-min Rain = 0
KEA1 210244Z 20012KT 09/M05 A30 RMK A01 T00911048  RH  037%=      5-min Rain = 0
KEA1 210245Z 20012KT 09/M05 A30 RMK A01 T00911049  RH  037%=      5-min Rain = 0
KEA1 210246Z 20012KT 09/M05 A30 RMK A01 T00921049  RH  037%=      5-min Rain = 0
KEA1 210247Z 20012KT 09/M05 A30 RMK A01 T00921049  RH  037%=      5-min Rain = 0
KEA1 210248Z 20013KT 09/M05 A30 RMK A01 T00921049  RH  036%=      5-min Rain = 0
KEA1 210249Z 20012KT 09/M05 A30 RMK A01 T00921049  RH  036%=      5-min Rain = 0
KEA1 210250Z 20012KT 09/M05 A30 RMK A01 T00921050  RH  036%=      5-min Rain = 0
KEA1 210251Z 20012KT 09/M05 A30 RMK A01 T00921050  RH  036%=      5-min Rain = 0
KEA1 210252Z 20012KT 09/M05 A30 RMK A01 T00921050  RH  036%=      5-min Rain = 0
KEA1 210253Z 20012KT 09/M05 A30 RMK A01 T00921050  RH  036%=      5-min Rain = 0
KEA1 210254Z 20012KT 09/M05 A30 RMK A01 T00911050  RH  037%=      5-min Rain = 0
KEA1 210255Z 20012KT 09/M05 A30 RMK A01 T00901050  RH  037%=      5-min Rain = 0
KEA1 210256Z 20012KT 09/M05 A30 RMK A01 T00901050  RH  037%=      5-min Rain = 0
KEA1 210257Z 20012KT 09/M05 A30 RMK A01 T00911050  RH  036%=      5-min Rain = 0
KEA1 210258Z 21011KT 09/M05 A30 RMK A01 T00921051  RH  036%=      5-min Rain = 0
KEA1 210259Z 20011KT 09/M05 A30 RMK A01 T00921051  RH  036%=      5-min Rain = 0
KEA1 210300Z 20012KT 09/M05 A30 RMK A01 T00911051  RH  036%=      5-min Rain = 0
KEA1 210301Z 20012KT 09/M05 A30 RMK A01 T00911051  RH  036%=      5-min Rain = 0
KEA1 210302Z 20012KT 09/M05 A30 RMK A01 T00901051  RH  036%=      5-min Rain = 0
KEA1 210303Z 20012KT 09/M05 A30 RMK A01 T00901051  RH  037%=      5-min Rain = 0
KEA1 210304Z 20012KT 09/M05 A30 RMK A01 T00891051  RH  037%=      5-min Rain = 0
KEA1 210305Z 20011KT 09/M05 A30 RMK A01 T00891051  RH  037%=      5-min Rain = 0
KEA1 210306Z 20011KT 09/M05 A30 RMK A01 T00881051  RH  037%=      5-min Rain = 0
KEA1 210307Z 20011KT 09/M05 A30 RMK A01 T00881051  RH  037%=      5-min Rain = 0
KEA1 210308Z 20011KT 09/M05 A30 RMK A01 T00871051  RH  037%=      5-min Rain = 0
KEA1 210309Z 20011KT 09/M05 A30 RMK A01 T00861052  RH  037%=      5-min Rain = 0
KEA1 210310Z 20011KT 09/M05 A30 RMK A01 T00861052  RH  037%=      5-min Rain = 0
KEA1 210311Z 20011KT 09/M05 A30 RMK A01 T00851052  RH  038%=      5-min Rain = 0
KEA1 210312Z 20012KT 08/M05 A30 RMK A01 T00841052  RH  038%=      5-min Rain = 0
KEA1 210313Z 20011KT 08/M05 A30 RMK A01 T00841052  RH  038%=      5-min Rain = 0
KEA1 210314Z 20011KT 08/M05 A30 RMK A01 T00841051  RH  038%=      5-min Rain = 0
KEA1 210315Z 20011KT 08/M05 A30 RMK A01 T00841052  RH  038%=      5-min Rain = 0
KEA1 210316Z 20011KT 08/M05 A30 RMK A01 T00831052  RH  038%=      5-min Rain = 0
KEA1 210317Z 20011KT 08/M05 A30 RMK A01 T00821052  RH  038%=      5-min Rain = 0
KEA1 210318Z 20012KT 08/M05 A30 RMK A01 T00831052  RH  038%=      5-min Rain = 0
KEA1 210319Z 20012KT 08/M05 A30 RMK A01 T00831052  RH  038%=      5-min Rain = 0
KEA1 210320Z 20011KT 08/M05 A30 RMK A01 T00831052  RH  038%=      5-min Rain = 0
KEA1 210321Z 20011KT 08/M05 A30 RMK A01 T00831052  RH  038%=      5-min Rain = 0
KEA1 210322Z 20012KT 08/M05 A30 RMK A01 T00821052  RH  038%=      5-min Rain = 0
KEA1 210323Z 20011KT 08/M05 A30 RMK A01 T00821052  RH  038%=      5-min Rain = 0
KEA1 210324Z 20012KT 08/M05 A30 RMK A01 T00821051  RH  039%=      5-min Rain = 0
KEA1 210325Z 20011KT 08/M05 A30 RMK A01 T00811052  RH  039%=      5-min Rain = 0
KEA1 210326Z 20012KT 08/M05 A30 RMK A01 T00811052  RH  039%=      5-min Rain = 0
KEA1 210327Z 20011KT 08/M05 A30 RMK A01 T00811051  RH  039%=      5-min Rain = 0
KEA1 210328Z 20012KT 08/M05 A30 RMK A01 T00811051  RH  039%=      5-min Rain = 0
KEA1 210329Z 20011KT 08/M05 A30 RMK A01 T00811052  RH  039%=      5-min Rain = 0
KEA1 210330Z 20012KT 08/M05 A30 RMK A01 T00811052  RH  039%=      5-min Rain = 0
KEA1 210331Z 20013KT 08/M05 A2999 RMK A01 T00821052  RH  038%=      5-min Rain = 0
KEA1 210332Z 20013KT 08/M05 A2999 RMK A01 T00841052  RH  038%=      5-min Rain = 0
KEA1 210333Z 21013KT 09/M05 A2999 RMK A01 T00861052  RH  037%=      5-min Rain = 0
KEA1 210334Z 20014KT 09/M05 A2999 RMK A01 T00871052  RH  037%=      5-min Rain = 0
KEA1 210335Z 20012KT 09/M05 A2999 RMK A01 T00861052  RH  037%=      5-min Rain = 0
KEA1 210336Z 20013KT 09/M05 A2999 RMK A01 T00851052  RH  037%=      5-min Rain = 0
KEA1 210337Z 20013KT 08/M05 A2999 RMK A01 T00841052  RH  038%=      5-min Rain = 0
KEA1 210338Z 20013KT 08/M05 A2999 RMK A01 T00831052  RH  038%=      5-min Rain = 0
KEA1 210339Z 20011KT 08/M05 A2999 RMK A01 T00831052  RH  038%=      5-min Rain = 0
KEA1 210340Z 20012KT 08/M05 A2999 RMK A01 T00811052  RH  038%=      5-min Rain = 0
KEA1 210341Z 20013KT 08/M05 A2999 RMK A01 T00791052  RH  039%=      5-min Rain = 0
KEA1 210342Z 20012KT 08/M05 A30 RMK A01 T00791052  RH  039%=      5-min Rain = 0
KEA1 210343Z 20012KT 08/M05 A30 RMK A01 T00771052  RH  039%=      5-min Rain = 0
KEA1 210344Z 20012KT 08/M05 A30 RMK A01 T00761053  RH  040%=      5-min Rain = 0
KEA1 210345Z 20012KT 07/M05 A30 RMK A01 T00741053  RH  040%=      5-min Rain = 0
KEA1 210346Z 20012KT 07/M05 A30 RMK A01 T00731053  RH  040%=      5-min Rain = 0
KEA1 210347Z 20012KT 07/M05 A30 RMK A01 T00731053  RH  040%=      5-min Rain = 0
KEA1 210348Z 20012KT 07/M05 A30 RMK A01 T00731053  RH  040%=      5-min Rain = 0
KEA1 210349Z 20012KT 07/M05 A30 RMK A01 T00731053  RH  040%=      5-min Rain = 0
KEA1 210350Z 20012KT 07/M05 A30 RMK A01 T00731053  RH  040%=      5-min Rain = 0
KEA1 210351Z 20011KT 07/M05 A30 RMK A01 T00721053  RH  041%=      5-min Rain = 0
KEA1 210352Z 20012KT 07/M05 A30 RMK A01 T00711053  RH  041%=      5-min Rain = 0
KEA1 210353Z 20011KT 07/M05 A30 RMK A01 T00701053  RH  041%=      5-min Rain = 0
KEA1 210354Z 20011KT 07/M05 A30 RMK A01 T00701052  RH  042%=      5-min Rain = 0
KEA1 210355Z 20012KT 07/M05 A30 RMK A01 T00691052  RH  042%=      5-min Rain = 0
KEA1 210356Z 20012KT 07/M05 A30 RMK A01 T00691052  RH  042%=      5-min Rain = 0
KEA1 210357Z 20012KT 07/M05 A30 RMK A01 T00691052  RH  042%=      5-min Rain = 0
KEA1 210358Z 20014KT 07/M05 A30 RMK A01 T00691051  RH  042%=      5-min Rain = 0
KEA1 210359Z 21012KT 07/M05 A30 RMK A01 T00711051  RH  041%=      5-min Rain = 0
KEA1 210400Z 20013KT 07/M05 A30 RMK A01 T00741051  RH  041%=      5-min Rain = 0
KEA1 210401Z 20012KT 08/M05 A30 RMK A01 T00751051  RH  040%=      5-min Rain = 0
KEA1 210402Z 20012KT 07/M05 A30 RMK A01 T00741052  RH  040%=      5-min Rain = 0
KEA1 210403Z 20014KT 07/M05 A30 RMK A01 T00741052  RH  040%=      5-min Rain = 0
KEA1 210404Z 20015KT 07/M05 A30 RMK A01 T00741052  RH  040%=      5-min Rain = 0
KEA1 210405Z 20015KT 08/M05 A30 RMK A01 T00761052  RH  040%=      5-min Rain = 0
KEA1 210406Z 20015KT 08/M05 A30 RMK A01 T00771052  RH  040%=      5-min Rain = 0
KEA1 210407Z 20016KT 08/M05 A30 RMK A01 T00771053  RH  039%=      5-min Rain = 0
KEA1 210408Z 20017KT 08/M05 A30 RMK A01 T00791052  RH  039%=      5-min Rain = 0
KEA1 210409Z 21017KT 08/M05 A30 RMK A01 T00801053  RH  038%=      5-min Rain = 0
KEA1 210410Z 21016KT 08/M05 A30 RMK A01 T00811053  RH  038%=      5-min Rain = 0
KEA1 210411Z 20016KT 08/M05 A30 RMK A01 T00821054  RH  038%=      5-min Rain = 0
KEA1 210412Z 21015KT 08/M05 A30 RMK A01 T00821054  RH  038%=      5-min Rain = 0
KEA1 210413Z 21016KT 08/M06 A30 RMK A01 T00811055  RH  038%=      5-min Rain = 0
KEA1 210414Z 20016KT 08/M05 A30 RMK A01 T00811054  RH  038%=      5-min Rain = 0
KEA1 210415Z 20017KT 08/M05 A30 RMK A01 T00821054  RH  038%=      5-min Rain = 0
KEA1 210416Z 20015KT 08/M05 A30 RMK A01 T00811054  RH  038%=      5-min Rain = 0
KEA1 210417Z 20015KT 08/M06 A30 RMK A01 T00791055  RH  038%=      5-min Rain = 0
KEA1 210418Z 21016KT 08/M06 A30 RMK A01 T00771055  RH  039%=      5-min Rain = 0
KEA1 210419Z 20014KT 08/M06 A30 RMK A01 T00761055  RH  039%=      5-min Rain = 0
KEA1 210420Z 20015KT 08/M06 A2999 RMK A01 T00771055  RH  039%=      5-min Rain = 0
KEA1 210421Z 20015KT 08/M06 A2999 RMK A01 T00761055  RH  039%=      5-min Rain = 0
KEA1 210422Z 20013KT 08/M06 A2999 RMK A01 T00761055  RH  039%=      5-min Rain = 0
KEA1 210423Z 20013KT 07/M06 A2999 RMK A01 T00741055  RH  040%=      5-min Rain = 0
KEA1 210424Z 20014KT 07/M06 A2999 RMK A01 T00711055  RH  040%=      5-min Rain = 0
KEA1 210425Z 20014KT 07/M06 A2999 RMK A01 T00701055  RH  041%=      5-min Rain = 0
KEA1 210426Z 20015KT 07/M06 A2999 RMK A01 T00701055  RH  041%=      5-min Rain = 0
KEA1 210427Z 20014KT 07/M05 A2999 RMK A01 T00711054  RH  040%=      5-min Rain = 0
KEA1 210428Z 20012KT 07/M05 A30 RMK A01 T00721054  RH  040%=      5-min Rain = 0
KEA1 210429Z 20012KT 07/M06 A30 RMK A01 T00711055  RH  040%=      5-min Rain = 0
KEA1 210430Z 20012KT 07/M06 A2999 RMK A01 T00691055  RH  041%=      5-min Rain = 0
KEA1 210431Z 20012KT 07/M06 A2999 RMK A01 T00671055  RH  041%=      5-min Rain = 0
KEA1 210432Z 20013KT 07/M06 A2999 RMK A01 T00651055  RH  042%=      5-min Rain = 0
KEA1 210433Z 20013KT 07/M06 A2999 RMK A01 T00651055  RH  042%=      5-min Rain = 0
KEA1 210434Z 20012KT 07/M05 A2999 RMK A01 T00651054  RH  042%=      5-min Rain = 0
KEA1 210435Z 21013KT 07/M05 A2999 RMK A01 T00651054  RH  042%=      5-min Rain = 0
KEA1 210436Z 20014KT 07/M05 A2999 RMK A01 T00651054  RH  042%=      5-min Rain = 0
KEA1 210437Z 20014KT 07/M05 A2999 RMK A01 T00671054  RH  042%=      5-min Rain = 0
KEA1 210438Z 20012KT 07/M06 A2999 RMK A01 T00681055  RH  041%=      5-min Rain = 0
KEA1 210439Z 20012KT 07/M06 A2999 RMK A01 T00681055  RH  041%=      5-min Rain = 0
KEA1 210440Z 20014KT 07/M06 A2999 RMK A01 T00681055  RH  041%=      5-min Rain = 0
KEA1 210441Z 20013KT 07/M06 A2999 RMK A01 T00681055  RH  041%=      5-min Rain = 0
KEA1 210442Z 20013KT 07/M06 A2999 RMK A01 T00691055  RH  041%=      5-min Rain = 0
KEA1 210443Z 20012KT 07/M05 A2999 RMK A01 T00691054  RH  041%=      5-min Rain = 0
KEA1 210444Z 20013KT 07/M06 A2999 RMK A01 T00691055  RH  041%=      5-min Rain = 0
KEA1 210445Z 20011KT 07/M06 A2999 RMK A01 T00691055  RH  041%=      5-min Rain = 0
KEA1 210446Z 20013KT 07/M06 A2999 RMK A01 T00691055  RH  041%=      5-min Rain = 0
KEA1 210447Z 20012KT 07/M06 A2999 RMK A01 T00691056  RH  041%=      5-min Rain = 0
KEA1 210448Z 20014KT 07/M06 A2999 RMK A01 T00701056  RH  040%=      5-min Rain = 0
KEA1 210449Z 20014KT 07/M06 A2999 RMK A01 T00721056  RH  040%=      5-min Rain = 0
KEA1 210450Z 20014KT 08/M06 A2999 RMK A01 T00751056  RH  039%=      5-min Rain = 0
KEA1 210451Z 20013KT 08/M06 A2999 RMK A01 T00761056  RH  038%=      5-min Rain = 0
KEA1 210452Z 20017KT 08/M06 A2999 RMK A01 T00771057  RH  038%=      5-min Rain = 0
KEA1 210453Z 19014KT 08/M06 A2999 RMK A01 T00781057  RH  038%=      5-min Rain = 0
KEA1 210454Z 19014KT 08/M06 A2999 RMK A01 T00771056  RH  038%=      5-min Rain = 0
KEA1 210455Z 20014KT 08/M06 A2999 RMK A01 T00761057  RH  039%=      5-min Rain = 0
KEA1 210456Z 20013KT 08/M06 A30 RMK A01 T00751056  RH  039%=      5-min Rain = 0
KEA1 210457Z 21015KT 08/M06 A2999 RMK A01 T00751056  RH  039%=      5-min Rain = 0
KEA1 210458Z 21014KT 08/M06 A2999 RMK A01 T00751057  RH  039%=      5-min Rain = 0
KEA1 210459Z 21012KT 08/M06 A30 RMK A01 T00761057  RH  038%=      5-min Rain = 0
KEA1 210500Z 21012KT 08/M06 A30 RMK A01 T00761057  RH  038%=      5-min Rain = 0
KEA1 210501Z 20012G17KT 08/M06 A2999 RMK A01 T00751058  RH  038%=      5-min Rain = 0
KEA1 210502Z 20014KT 08/M06 A2999 RMK A01 T00751058  RH  038%=      5-min Rain = 0
KEA1 210503Z 20013KT 08/M06 A2999 RMK A01 T00761058  RH  038%=      5-min Rain = 0
KEA1 210504Z 20013KT 08/M06 A2999 RMK A01 T00761058  RH  038%=      5-min Rain = 0
KEA1 210505Z 20012KT 08/M06 A2999 RMK A01 T00761058  RH  038%=      5-min Rain = 0
KEA1 210506Z 20013KT 07/M06 A2999 RMK A01 T00741058  RH  038%=      5-min Rain = 0
KEA1 210507Z 20014KT 07/M06 A2999 RMK A01 T00731058  RH  039%=      5-min Rain = 0
KEA1 210508Z 20014KT 07/M06 A2999 RMK A01 T00741058  RH  039%=      5-min Rain = 0
KEA1 210509Z 20014KT 08/M06 A2999 RMK A01 T00751058  RH  038%=      5-min Rain = 0
KEA1 210510Z 20014KT 08/M06 A2999 RMK A01 T00751058  RH  038%=      5-min Rain = 0
KEA1 210511Z 20013KT 08/M06 A2999 RMK A01 T00751058  RH  038%=      5-min Rain = 0
KEA1 210512Z 20013KT 08/M06 A2999 RMK A01 T00751058  RH  038%=      5-min Rain = 0
KEA1 210513Z 20014KT 08/M06 A2999 RMK A01 T00751058  RH  038%=      5-min Rain = 0
KEA1 210514Z 20013KT 08/M06 A2999 RMK A01 T00751058  RH  038%=      5-min Rain = 0
KEA1 210515Z 20013KT 08/M06 A2999 RMK A01 T00751059  RH  038%=      5-min Rain = 0
KEA1 210516Z 20013KT 08/M06 A2999 RMK A01 T00751059  RH  038%=      5-min Rain = 0
KEA1 210517Z 20013KT 08/M06 A2999 RMK A01 T00761059  RH  038%=      5-min Rain = 0
KEA1 210518Z 20013KT 08/M06 A2999 RMK A01 T00761059  RH  038%=      5-min Rain = 0
KEA1 210519Z 20012KT 08/M06 A2999 RMK A01 T00771059  RH  038%=      5-min Rain = 0
KEA1 210520Z 20013KT 08/M06 A2999 RMK A01 T00761059  RH  038%=      5-min Rain = 0
KEA1 210521Z 20013KT 08/M06 A2999 RMK A01 T00761059  RH  038%=      5-min Rain = 0
KEA1 210522Z 20013KT 08/M06 A2999 RMK A01 T00761059  RH  038%=      5-min Rain = 0
KEA1 210523Z 20012KT 08/M06 A2999 RMK A01 T00761059  RH  038%=      5-min Rain = 0
KEA1 210524Z 20013KT 08/M06 A2999 RMK A01 T00761060  RH  038%=      5-min Rain = 0
KEA1 210525Z 20013KT 08/M06 A2999 RMK A01 T00761060  RH  038%=      5-min Rain = 0
KEA1 210526Z 20013KT 08/M06 A2999 RMK A01 T00771060  RH  037%=      5-min Rain = 0
KEA1 210527Z 20013KT 08/M06 A2999 RMK A01 T00771060  RH  037%=      5-min Rain = 0
KEA1 210528Z 20013KT 08/M06 A2999 RMK A01 T00771060  RH  037%=      5-min Rain = 0
KEA1 210529Z 20012KT 08/M06 A2999 RMK A01 T00771060  RH  037%=      5-min Rain = 0
KEA1 210530Z 20012KT 08/M06 A2999 RMK A01 T00761061  RH  037%=      5-min Rain = 0
KEA1 210531Z 20012KT 08/M06 A2999 RMK A01 T00751061  RH  037%=      5-min Rain = 0
KEA1 210532Z 20011KT 08/M06 A2999 RMK A01 T00751061  RH  038%=      5-min Rain = 0
KEA1 210533Z 20012KT 08/M06 A2999 RMK A01 T00751061  RH  038%=      5-min Rain = 0
KEA1 210534Z 20012KT 08/M06 A2999 RMK A01 T00751060  RH  038%=      5-min Rain = 0
KEA1 210535Z 20012KT 08/M06 A2999 RMK A01 T00751061  RH  037%=      5-min Rain = 0
KEA1 210536Z 20013KT 08/M06 A2999 RMK A01 T00761061  RH  037%=      5-min Rain = 0
KEA1 210537Z 20012KT 08/M06 A2999 RMK A01 T00761061  RH  037%=      5-min Rain = 0
KEA1 210538Z 21014KT 08/M06 A2999 RMK A01 T00761061  RH  037%=      5-min Rain = 0
KEA1 210539Z 20014KT 08/M06 A2999 RMK A01 T00761061  RH  037%=      5-min Rain = 0
KEA1 210540Z 21013KT 08/M06 A2999 RMK A01 T00761061  RH  037%=      5-min Rain = 0
KEA1 210541Z 20014KT 08/M06 A2999 RMK A01 T00761061  RH  037%=      5-min Rain = 0
KEA1 210542Z 21015KT 08/M06 A2998 RMK A01 T00771061  RH  037%=      5-min Rain = 0
KEA1 210543Z 21014KT 08/M06 A2998 RMK A01 T00781062  RH  037%=      5-min Rain = 0
KEA1 210544Z 21013KT 08/M06 A2998 RMK A01 T00781062  RH  036%=      5-min Rain = 0
KEA1 210545Z 21013KT 08/M06 A2998 RMK A01 T00771062  RH  037%=      5-min Rain = 0
KEA1 210546Z 20014KT 08/M06 A2998 RMK A01 T00771062  RH  037%=      5-min Rain = 0
KEA1 210547Z 20015KT 08/M06 A2998 RMK A01 T00771061  RH  037%=      5-min Rain = 0
KEA1 210548Z 20015KT 08/M06 A2998 RMK A01 T00781062  RH  037%=      5-min Rain = 0
KEA1 210549Z 20012KT 08/M06 A2998 RMK A01 T00781062  RH  036%=      5-min Rain = 0
KEA1 210550Z 20012KT 08/M06 A2998 RMK A01 T00771062  RH  037%=      5-min Rain = 0
KEA1 210551Z 20013KT 07/M06 A2998 RMK A01 T00741062  RH  037%=      5-min Rain = 0
KEA1 210552Z 20013KT 07/M06 A2998 RMK A01 T00731062  RH  038%=      5-min Rain = 0
KEA1 210553Z 20013KT 07/M06 A2998 RMK A01 T00741062  RH  038%=      5-min Rain = 0
KEA1 210554Z 21013KT 07/M06 A2998 RMK A01 T00741062  RH  038%=      5-min Rain = 0
KEA1 210555Z 20013KT 07/M06 A2998 RMK A01 T00741062  RH  038%=      5-min Rain = 0
KEA1 210556Z 20014KT 07/M06 A2998 RMK A01 T00731062  RH  037%=      5-min Rain = 0
KEA1 210557Z 20013KT 07/M06 A2998 RMK A01 T00741062  RH  037%=      5-min Rain = 0
KEA1 210558Z 20013KT 07/M06 A2998 RMK A01 T00741062  RH  037%=      5-min Rain = 0
KEA1 210559Z 20013KT 07/M06 A2998 RMK A01 T00731062  RH  038%=      5-min Rain = 0

Page generated in 0.071 seconds.